FW4143 Weather Reports


time (UTC)temp
C
wind
direction
speed
KPH
gust
KPH
rain 1hr
cm
rain 24hr
cm
rain mn
cm
humidity
%
barometer
mb
20260902093004 26 54 4.8 9.7 0.00 0.00 0.00 1 1014.9
20260902092904 26 50 4.8 9.7 0.00 0.00 0.00 1 1014.9
20260902092803 26 45 4.8 9.7 0.00 0.00 0.00 1 1014.9
20260902092703 26 35 4.8 9.7 0.00 0.00 0.00 1 1014.9
20260902092625 26 31 4.8 9.7 0.00 0.00 0.00 1 1014.9
20260902092503 26 19 4.8 9.7 0.00 0.00 0.00 1 1014.9
20260902092403 26 6 4.8 9.7 0.00 0.00 0.00 1 1014.8
20260902092305 26 346 3.2 9.7 0.00 0.00 0.00 1 1014.8
20260902092203 27 329 3.2 9.7 0.00 0.00 0.00 1 1014.9
20260902092127 27 319 3.2 9.7 0.00 0.00 0.00 1 1014.8
20260902092004 27 307 3.2 6.4 0.00 0.00 0.00 1 1014.8
20260902091904 27 307 3.2 6.4 0.00 0.00 0.00 1 1014.8
20260902091803 27 306 3.2 6.4 0.00 0.00 0.00 1 1014.9
20260902091703 27 305 3.2 6.4 0.00 0.00 0.00 1 1014.8
20260902091604 27 305 3.2 6.4 0.00 0.00 0.00 1 1014.9
20260902091503 27 304 3.2 6.4 0.00 0.00 0.00 1 1014.9
20260902091403 27 304 3.2 6.4 0.00 0.00 0.00 1 1014.9
20260902091304 27 303 3.2 6.4 0.00 0.00 0.00 1 1014.9
20260902091225 27 303 3.2 6.4 0.00 0.00 0.00 1 1014.9
20260902091104 27 302 3.2 6.4 0.00 0.00 0.00 1 1014.9
20260902091003 27 301 3.2 6.4 0.00 0.00 0.00 1 1014.9
20260902090903 27 300 3.2 6.4 0.00 0.00 0.00 1 1014.9
20260902090804 27 300 3.2 6.4 0.00 0.00 0.00 1 1014.9
20260902090703 27 300 3.2 6.4 0.00 0.00 0.00 1 1014.9
20260902090603 27 300 3.2 6.4 0.00 0.00 0.00 1 1014.9
20260902090525 27 300 3.2 6.4 0.00 0.00 0.00 1 1015.0
20260902090403 26 300 1.6 6.4 0.00 0.00 0.00 1 1014.9
20260902090304 26 300 1.6 6.4 0.00 0.00 0.00 1 1015.0
20260902090203 26 300 1.6 4.8 0.00 0.00 0.00 1 1014.9
20260902090104 26 300 1.6 4.8 0.00 0.00 0.00 1 1015.0
20260902090004 26 300 1.6 4.8 0.00 0.00 0.00 1 1015.0
20260902085904 26 300 1.6 4.8 0.00 0.00 0.00 1 1015.0
20260902085804 26 300 1.6 4.8 0.00 0.00 0.00 1 1015.0
20260902085725 26 300 0.0 3.2 0.00 0.00 0.00 1 1015.0
20260902085603 26 300 0.0 3.2 0.00 0.00 0.00 1 1015.0
20260902085503 26 300 0.0 3.2 0.00 0.00 0.00 1 1015.0
20260902085403 26 300 0.0 1.6 0.00 0.00 0.00 1 1015.0
20260902085306 26 300 0.0 1.6 0.00 0.00 0.00 1 1015.0
20260902085224 26 300 0.0 1.6 0.00 0.00 0.00 1 1015.0
20260902085104 26 300 0.0 1.6 0.00 0.00 0.00 1 1015.0
20260902085003 26 300 0.0 1.6 0.00 0.00 0.00 1 1015.0
20260902084903 26 300 0.0 1.6 0.00 0.00 0.00 1 1015.1
20260902084803 26 300 0.0 3.2 0.00 0.00 0.00 1 1015.1
20260902084703 26 300 0.0 3.2 0.00 0.00 0.00 1 1015.1
20260902084603 26 300 0.0 3.2 0.00 0.00 0.00 1 1015.1
20260902084503 26 300 0.0 3.2 0.00 0.00 0.00 1 1015.0
20260902084403 26 300 0.0 3.2 0.00 0.00 0.00 1 1015.0
20260902084324 26 300 0.0 3.2 0.00 0.00 0.00 1 1015.0
20260902084203 26 300 0.0 3.2 0.00 0.00 0.00 1 1015.1
20260902084104 26 300 0.0 3.2 0.00 0.00 0.00 1 1015.0
20260902084003 26 300 0.0 3.2 0.00 0.00 0.00 1 1015.1
20260902083904 26 300 0.0 3.2 0.00 0.00 0.00 1 1015.1
20260902083825 26 300 1.6 3.2 0.00 0.00 0.00 1 1015.0
20260902083703 26 300 1.6 3.2 0.00 0.00 0.00 1 1015.0
20260902083604 26 300 1.6 3.2 0.00 0.00 0.00 1 1015.0
20260902083503 26 300 0.0 3.2 0.00 0.00 0.00 1 1015.0
20260902083403 26 300 1.6 3.2 0.00 0.00 0.00 1 1015.0
20260902083304 26 300 1.6 3.2 0.00 0.00 0.00 1 1015.0
20260902083203 26 300 1.6 3.2 0.00 0.00 0.00 1 1014.9
20260902083103 26 300 1.6 3.2 0.00 0.00 0.00 1 1015.0
20260902083004 26 300 1.6 3.2 0.00 0.00 0.00 1 1014.9
20260902082904 26 300 1.6 3.2 0.00 0.00 0.00 1 1015.0
20260902082803 26 300 1.6 4.8 0.00 0.00 0.00 1 1014.9
20260902082703 26 300 1.6 4.8 0.00 0.00 0.00 1 1015.0
20260902082603 26 300 1.6 4.8 0.00 0.00 0.00 1 1015.0
20260902082503 26 300 1.6 4.8 0.00 0.00 0.00 1 1015.0
20260902082403 26 300 1.6 4.8 0.00 0.00 0.00 1 1015.0
20260902082309 26 300 1.6 4.8 0.00 0.00 0.00 1 1015.0
20260902082203 26 300 1.6 4.8 0.00 0.00 0.00 1 1015.0
20260902082103 26 300 1.6 4.8 0.00 0.00 0.00 1 1015.0
20260902082004 26 300 1.6 4.8 0.00 0.00 0.00 1 1015.0
20260902081904 26 300 1.6 4.8 0.00 0.00 0.00 1 1015.0
20260902081825 26 300 1.6 4.8 0.00 0.00 0.00 1 1015.0
20260902081725 26 300 1.6 4.8 0.00 0.00 0.00 1 1015.1
20260902081603 26 300 1.6 4.8 0.00 0.00 0.00 1 1015.1
20260902081504 26 300 1.6 4.8 0.00 0.00 0.00 1 1015.0
20260902081404 26 300 1.6 3.2 0.00 0.00 0.00 1 1015.1
20260902081303 26 300 1.6 3.2 0.00 0.00 0.00 1 1015.1
20260902081204 26 300 1.6 3.2 0.00 0.00 0.00 1 1015.2
20260902081104 26 300 1.6 4.8 0.00 0.00 0.00 1 1015.2
20260902081004 26 300 1.6 4.8 0.00 0.00 0.00 1 1015.2
20260902080903 26 299 1.6 4.8 0.00 0.00 0.00 1 1015.2
20260902080804 26 299 1.6 4.8 0.00 0.00 0.00 1 1015.2
20260902080703 26 299 1.6 4.8 0.00 0.00 0.00 1 1015.2
20260902080603 26 299 1.6 4.8 0.00 0.00 0.00 1 1015.2
20260902080503 26 298 1.6 4.8 0.00 0.00 0.00 1 1015.2
20260902080403 26 298 1.6 4.8 0.00 0.00 0.00 1 1015.2
20260902080303 26 298 1.6 4.8 0.00 0.00 0.00 1 1015.2
20260902080204 26 298 1.6 4.8 0.00 0.00 0.00 1 1015.3
20260902080104 26 297 0.0 3.2 0.00 0.00 0.00 1 1015.3
20260902080027 26 297 0.0 3.2 0.00 0.00 0.00 1 1015.3
20260902075903 26 297 0.0 3.2 0.00 0.00 0.00 1 1015.3
20260902075803 26 297 0.0 3.2 0.00 0.00 0.00 1 1015.3
20260902075703 26 298 0.0 1.6 0.00 0.00 0.00 1 1015.3
20260902075603 26 298 0.0 1.6 0.00 0.00 0.00 1 1015.3
20260902075503 26 298 0.0 1.6 0.00 0.00 0.00 1 1015.3
20260902075403 26 298 0.0 1.6 0.00 0.00 0.00 1 1015.3
20260902075306 26 298 0.0 1.6 0.00 0.00 0.00 1 1015.3
20260902075203 26 298 0.0 1.6 0.00 0.00 0.00 1 1015.3
20260902075103 26 298 0.0 1.6 0.00 0.00 0.00 1 1015.3
20260902075003 26 298 0.0 1.6 0.00 0.00 0.00 1 1015.3
20260902074903 26 298 1.6 3.2 0.00 0.00 0.00 1 1015.3
20260902074803 26 298 1.6 3.2 0.00 0.00 0.00 1 1015.3
20260902074724 27 298 0.0 3.2 0.00 0.00 0.00 1 1015.3
20260902074603 27 298 0.0 3.2 0.00 0.00 0.00 1 1015.4
20260902074503 27 298 0.0 3.2 0.00 0.00 0.00 1 1015.4
20260902074403 27 298 1.6 3.2 0.00 0.00 0.00 1 1015.4
20260902074304 27 298 1.6 3.2 0.00 0.00 0.00 1 1015.4
20260902074203 27 298 1.6 3.2 0.00 0.00 0.00 1 1015.4
20260902074104 27 298 1.6 3.2 0.00 0.00 0.00 1 1015.4
20260902074003 27 298 1.6 3.2 0.00 0.00 0.00 1 1015.4
20260902073924 27 298 1.6 3.2 0.00 0.00 0.00 1 1015.4
20260902073804 27 298 1.6 3.2 0.00 0.00 0.00 1 1015.3
20260902073704 27 298 1.6 3.2 0.00 0.00 0.00 1 1015.4
20260902073604 27 298 1.6 3.2 0.00 0.00 0.00 1 1015.4
20260902073503 27 298 1.6 3.2 0.00 0.00 0.00 1 1015.5
20260902073424 27 298 1.6 3.2 0.00 0.00 0.00 1 1015.4
20260902073324 27 298 1.6 3.2 0.00 0.00 0.00 1 1015.4
20260902073203 27 298 1.6 3.2 0.00 0.00 0.00 1 1015.4
20260902073104 27 298 0.0 3.2 0.00 0.00 0.00 1 1015.4
20260902073004 27 298 0.0 3.2 0.00 0.00 0.00 1 1015.4
20260902072903 27 298 0.0 3.2 0.00 0.00 0.00 1 1015.4
20260902072803 27 298 0.0 3.2 0.00 0.00 0.00 1 1015.4
20260902072704 27 298 0.0 3.2 0.00 0.00 0.00 1 1015.4
20260902072625 27 298 1.6 3.2 0.00 0.00 0.00 1 1015.4
20260902072525 27 298 1.6 3.2 0.00 0.00 0.00 1 1015.4
20260902072403 27 298 1.6 3.2 0.00 0.00 0.00 1 1015.4
20260902072309 27 298 1.6 3.2 0.00 0.00 0.00 1 1015.4
20260902072225 27 298 1.6 3.2 0.00 0.00 0.00 1 1015.4
20260902072104 27 298 1.6 3.2 0.00 0.00 0.00 1 1015.4
20260902072003 27 298 1.6 3.2 0.00 0.00 0.00 1 1015.4
20260902071903 27 298 1.6 3.2 0.00 0.00 0.00 1 1015.5
20260902071803 27 298 1.6 3.2 0.00 0.00 0.00 1 1015.5
20260902071725 27 298 1.6 3.2 0.00 0.00 0.00 1 1015.5
20260902071603 27 298 1.6 3.2 0.00 0.00 0.00 1 1015.5
20260902071504 27 298 1.6 3.2 0.00 0.00 0.00 1 1015.5
20260902071403 27 298 1.6 3.2 0.00 0.00 0.00 1 1015.5
20260902071303 27 298 0.0 3.2 0.00 0.00 0.00 1 1015.6
20260902071224 27 298 0.0 3.2 0.00 0.00 0.00 1 1015.6
20260902071124 27 298 0.0 3.2 0.00 0.00 0.00 1 1015.5
20260902071024 27 298 0.0 3.2 0.00 0.00 0.00 1 1015.5
20260902070903 27 297 0.0 3.2 0.00 0.00 0.00 1 1015.6
20260902070803 27 297 0.0 3.2 0.00 0.00 0.00 1 1015.5
20260902070703 27 297 0.0 3.2 0.00 0.00 0.00 1 1015.5
20260902070604 27 297 0.0 3.2 0.00 0.00 0.00 1 1015.5
20260902070504 27 297 0.0 3.2 0.00 0.00 0.00 1 1015.5
20260902070403 27 297 0.0 3.2 0.00 0.00 0.00 1 1015.5
20260902070303 27 297 0.0 3.2 0.00 0.00 0.00 1 1015.5
20260902070203 27 298 0.0 3.2 0.00 0.00 0.00 1 1015.5
20260902070103 27 298 0.0 3.2 0.00 0.00 0.00 1 1015.5
20260902070005 27 298 0.0 3.2 0.00 0.00 0.00 1 1015.5
20260902065903 27 298 0.0 3.2 0.00 0.00 0.00 1 1015.5
20260902065804 27 298 0.0 3.2 0.00 0.00 0.00 1 1015.5
20260902065703 27 298 1.6 3.2 0.00 0.00 0.00 1 1015.5
20260902065604 27 298 1.6 3.2 0.00 0.00 0.00 1 1015.5
20260902065503 27 298 1.6 3.2 0.00 0.00 0.00 1 1015.6
20260902065403 27 298 1.6 3.2 0.00 0.00 0.00 1 1015.5
20260902065307 27 298 1.6 3.2 0.00 0.00 0.00 1 1015.5
20260902065224 27 298 1.6 3.2 0.00 0.00 0.00 1 1015.5
20260902065103 27 298 1.6 3.2 0.00 0.00 0.00 1 1015.5
20260902065003 27 298 0.0 3.2 0.00 0.00 0.00 1 1015.5
20260902064904 27 298 1.6 3.2 0.00 0.00 0.00 1 1015.5
20260902064803 27 298 0.0 3.2 0.00 0.00 0.00 1 1015.5
20260902064704 27 298 0.0 3.2 0.00 0.00 0.00 1 1015.5
20260902064603 27 298 0.0 3.2 0.00 0.00 0.00 1 1015.5
20260902064525 27 298 0.0 3.2 0.00 0.00 0.00 1 1015.6
20260902064403 27 298 0.0 3.2 0.00 0.00 0.00 1 1015.5
20260902064303 27 298 0.0 3.2 0.00 0.00 0.00 1 1015.5
20260902064203 27 298 0.0 3.2 0.00 0.00 0.00 1 1015.5
20260902064124 27 298 0.0 3.2 0.00 0.00 0.00 1 1015.5
20260902064004 27 298 0.0 3.2 0.00 0.00 0.00 1 1015.5
20260902063903 27 298 0.0 3.2 0.00 0.00 0.00 1 1015.5
20260902063803 27 298 1.6 3.2 0.00 0.00 0.00 1 1015.5
20260902063703 27 298 1.6 3.2 0.00 0.00 0.00 1 1015.5
20260902063603 27 298 1.6 4.8 0.00 0.00 0.00 1 1015.5
20260902063503 27 298 1.6 4.8 0.00 0.00 0.00 1 1015.5
20260902063403 27 298 1.6 4.8 0.00 0.00 0.00 1 1015.5
20260902063303 27 298 1.6 4.8 0.00 0.00 0.00 1 1015.5
20260902063203 27 298 1.6 4.8 0.00 0.00 0.00 1 1015.5
20260902063104 27 298 1.6 4.8 0.00 0.00 0.00 1 1015.5
20260902063004 27 298 1.6 4.8 0.00 0.00 0.00 1 1015.6
20260902062903 27 298 1.6 4.8 0.00 0.00 0.00 1 1015.7
20260902062803 27 298 1.6 4.8 0.00 0.00 0.00 1 1015.6
20260902062704 27 298 1.6 4.8 0.00 0.00 0.00 1 1015.7
20260902062603 27 298 1.6 4.8 0.00 0.00 0.00 1 1015.6
20260902062503 27 298 1.6 4.8 0.00 0.00 0.00 1 1015.7
20260902062404 27 298 1.6 4.8 0.00 0.00 0.00 1 1015.7
20260902062306 27 298 1.6 4.8 0.00 0.00 0.00 1 1015.6
20260902062203 27 298 1.6 4.8 0.00 0.00 0.00 1 1015.6
20260902062104 27 299 1.6 4.8 0.00 0.00 0.00 1 1015.5
20260902062003 27 299 1.6 4.8 0.00 0.00 0.00 1 1015.6
20260902061904 27 299 1.6 4.8 0.00 0.00 0.00 1 1015.5
20260902061824 27 299 1.6 4.8 0.00 0.00 0.00 1 1015.6
20260902061703 27 299 1.6 4.8 0.00 0.00 0.00 1 1015.6
20260902061603 27 299 1.6 4.8 0.00 0.00 0.00 1 1015.6
20260902061503 27 299 1.6 4.8 0.00 0.00 0.00 1 1015.6
20260902061403 27 299 1.6 4.8 0.00 0.00 0.00 1 1015.6
20260902061324 27 299 1.6 4.8 0.00 0.00 0.00 1 1015.6
20260902061203 27 300 1.6 4.8 0.00 0.00 0.00 1 1015.6
20260902061103 27 300 1.6 4.8 0.00 0.00 0.00 1 1015.6
20260902061046 27 300 1.6 4.8 0.00 0.00 0.00 1 1015.7
20260902060904 27 300 1.6 4.8 0.00 0.00 0.00 1 1015.6
20260902060803 28 300 1.6 3.2 0.00 0.00 0.00 1 1015.7
20260902060703 28 300 0.0 3.2 0.00 0.00 0.00 1 1015.6
20260902060625 28 300 0.0 3.2 0.00 0.00 0.00 1 1015.7
20260902060503 28 300 0.0 3.2 0.00 0.00 0.00 1 1015.7
20260902060403 27 300 0.0 3.2 0.00 0.00 0.00 1 1015.7
20260902060303 27 300 0.0 1.6 0.00 0.00 0.00 1 1015.7
20260902060203 27 300 0.0 1.6 0.00 0.00 0.00 1 1015.7
20260902060104 27 300 0.0 1.6 0.00 0.00 0.00 1 1015.7
20260902060004 27 300 0.0 3.2 0.00 0.00 0.00 1 1015.6
20260902055924 28 300 0.0 3.2 0.00 0.00 0.00 1 1015.6
20260902055803 28 300 1.6 3.2 0.00 0.00 0.00 1 1015.6
20260902055703 28 300 1.6 3.2 0.00 0.00 0.00 1 1015.7
20260902055603 28 300 1.6 3.2 0.00 0.00 0.00 1 1015.6
20260902055504 28 299 1.6 3.2 0.00 0.00 0.00 1 1015.7
20260902055403 28 299 1.6 3.2 0.00 0.00 0.00 2 1015.6
20260902055306 28 300 1.6 3.2 0.00 0.00 0.00 2 1015.6
20260902055224 28 300 1.6 3.2 0.00 0.00 0.00 2 1015.6
20260902055124 28 300 1.6 3.2 0.00 0.00 0.00 4 1015.6
20260902055003 28 300 1.6 3.2 0.00 0.00 0.00 5 1015.6
20260902054903 28 300 1.6 3.2 0.00 0.00 0.00 6 1015.6
20260902054803 28 300 1.6 3.2 0.00 0.00 0.00 8 1015.5
20260902054725 28 300 1.6 3.2 0.00 0.00 0.00 8 1015.5
20260902054603 28 300 1.6 4.8 0.00 0.00 0.00 9 1015.6
20260902054503 28 300 1.6 4.8 0.00 0.00 0.00 10 1015.5
20260902054425 28 300 1.6 4.8 0.00 0.00 0.00 11 1015.5
20260902054304 28 300 1.6 4.8 0.00 0.00 0.00 11 1015.5
20260902054203 28 300 1.6 4.8 0.00 0.00 0.00 11 1015.5
20260902054103 28 300 1.6 4.8 0.00 0.00 0.00 12 1015.4
20260902054003 28 300 1.6 4.8 0.00 0.00 0.00 12 1015.4
20260902053903 28 300 1.6 4.8 0.00 0.00 0.00 12 1015.4
20260902053804 28 300 1.6 4.8 0.00 0.00 0.00 12 1015.4
20260902053703 28 300 1.6 4.8 0.00 0.00 0.00 13 1015.4
20260902053603 28 300 1.6 4.8 0.00 0.00 0.00 12 1015.4
20260902053503 28 300 1.6 4.8 0.00 0.00 0.00 13 1015.4
20260902053403 28 300 1.6 4.8 0.00 0.00 0.00 13 1015.3
20260902053304 28 300 1.6 4.8 0.00 0.00 0.00 13 1015.3
20260902053203 28 300 1.6 4.8 0.00 0.00 0.00 14 1015.3
20260902053103 28 300 1.6 4.8 0.00 0.00 0.00 14 1015.2
20260902053003 28 300 1.6 4.8 0.00 0.00 0.00 15 1015.3
20260902052903 28 300 1.6 4.8 0.00 0.00 0.00 16 1015.2
20260902052803 28 300 1.6 4.8 0.00 0.00 0.00 16 1015.3
20260902052703 28 300 1.6 4.8 0.00 0.00 0.00 16 1015.2
20260902052603 28 300 1.6 4.8 0.00 0.00 0.00 16 1015.2
20260902052503 28 300 1.6 4.8 0.00 0.00 0.00 17 1015.3
20260902052404 28 300 1.6 4.8 0.00 0.00 0.00 17 1015.2
20260902052306 28 300 3.2 4.8 0.00 0.00 0.00 17 1015.2
20260902052203 28 300 1.6 4.8 0.00 0.00 0.00 17 1015.3
20260902052103 28 300 1.6 4.8 0.00 0.00 0.00 17 1015.3
20260902052004 28 300 1.6 6.4 0.00 0.00 0.00 18 1015.3
20260902051903 28 300 1.6 6.4 0.00 0.00 0.00 17 1015.3
20260902051803 28 300 1.6 6.4 0.00 0.00 0.00 18 1015.2
20260902051703 28 300 1.6 6.4 0.00 0.00 0.00 18 1015.3
20260902051603 28 300 1.6 6.4 0.00 0.00 0.00 19 1015.3
20260902051504 28 300 1.6 6.4 0.00 0.00 0.00 19 1015.3
20260902051403 28 300 1.6 6.4 0.00 0.00 0.00 19 1015.3
20260902051303 28 300 1.6 6.4 0.00 0.00 0.00 20 1015.3
20260902051204 28 300 1.6 6.4 0.00 0.00 0.00 20 1015.3
20260902051103 28 299 1.6 6.4 0.00 0.00 0.00 20 1015.4
20260902051024 28 299 3.2 8.0 0.00 0.00 0.00 20 1015.3
20260902050925 28 299 3.2 8.0 0.00 0.00 0.00 20 1015.4
20260902050803 28 298 3.2 8.0 0.00 0.00 0.00 21 1015.4
20260902050704 28 298 3.2 8.0 0.00 0.00 0.00 21 1015.4
20260902050603 29 299 3.2 11.3 0.00 0.00 0.00 21 1015.4
20260902050504 29 299 3.2 11.3 0.00 0.00 0.00 22 1015.4
20260902050424 29 299 3.2 11.3 0.00 0.00 0.00 22 1015.4
20260902050325 29 299 3.2 11.3 0.00 0.00 0.00 22 1015.3
20260902050203 29 299 3.2 11.3 0.00 0.00 0.00 22 1015.4
20260902050103 29 299 3.2 11.3 0.00 0.00 0.00 23 1015.4
20260902050025 29 299 1.6 11.3 0.00 0.00 0.00 23 1015.4
20260902045904 29 299 3.2 11.3 0.00 0.00 0.00 23 1015.4
20260902045803 29 299 3.2 11.3 0.00 0.00 0.00 23 1015.3
20260902045703 29 299 3.2 11.3 0.00 0.00 0.00 23 1015.3
20260902045624 29 299 1.6 9.7 0.00 0.00 0.00 23 1015.3
20260902045503 29 298 1.6 6.4 0.00 0.00 0.00 23 1015.3
20260902045404 29 298 1.6 6.4 0.00 0.00 0.00 23 1015.4
20260902045306 29 298 1.6 6.4 0.00 0.00 0.00 23 1015.4
20260902045203 29 298 3.2 6.4 0.00 0.00 0.00 24 1015.4
20260902045103 29 298 3.2 6.4 0.00 0.00 0.00 24 1015.4
20260902045003 29 298 3.2 6.4 0.00 0.00 0.00 24 1015.4
20260902044924 29 298 3.2 6.4 0.00 0.00 0.00 24 1015.4
20260902044803 29 298 3.2 6.4 0.00 0.00 0.00 24 1015.4
20260902044703 29 297 3.2 6.4 0.00 0.00 0.00 24 1015.4
20260902044603 29 297 3.2 6.4 0.00 0.00 0.00 24 1015.4
20260902044524 29 297 1.6 6.4 0.00 0.00 0.00 25 1015.4
20260902044404 29 297 1.6 6.4 0.00 0.00 0.00 25 1015.4
20260902044304 29 297 1.6 6.4 0.00 0.00 0.00 25 1015.4
20260902044203 29 297 1.6 6.4 0.00 0.00 0.00 25 1015.4
20260902044103 29 297 1.6 6.4 0.00 0.00 0.00 26 1015.4
20260902044003 29 297 1.6 6.4 0.00 0.00 0.00 26 1015.4
20260902043903 29 296 1.6 6.4 0.00 0.00 0.00 26 1015.4
20260902043803 29 296 1.6 6.4 0.00 0.00 0.00 26 1015.4
20260902043703 29 296 1.6 6.4 0.00 0.00 0.00 27 1015.4
20260902043603 29 296 1.6 6.4 0.00 0.00 0.00 27 1015.4
20260902043503 30 296 1.6 6.4 0.00 0.00 0.00 27 1015.5
20260902043424 30 296 1.6 6.4 0.00 0.00 0.00 27 1015.5
20260902043325 30 296 1.6 6.4 0.00 0.00 0.00 27 1015.5
20260902043203 30 296 1.6 6.4 0.00 0.00 0.00 28 1015.5
20260902043104 30 296 1.6 6.4 0.00 0.00 0.00 28 1015.5
20260902043003 30 296 1.6 8.0 0.00 0.00 0.00 28 1015.5
20260902042903 30 296 1.6 8.0 0.00 0.00 0.00 29 1015.5
20260902042803 30 296 1.6 8.0 0.00 0.00 0.00 29 1015.5
20260902042703 30 296 1.6 8.0 0.00 0.00 0.00 29 1015.5
20260902042603 30 296 1.6 8.0 0.00 0.00 0.00 30 1015.5
20260902042503 30 296 1.6 8.0 0.00 0.00 0.00 30 1015.5
20260902042403 30 295 1.6 8.0 0.00 0.00 0.00 30 1015.5
20260902042308 30 295 1.6 8.0 0.00 0.00 0.00 31 1015.4
20260902042203 30 295 1.6 8.0 0.00 0.00 0.00 31 1015.4
20260902042125 30 295 1.6 8.0 0.00 0.00 0.00 31 1015.4
20260902042003 30 294 1.6 4.8 0.00 0.00 0.00 31 1015.5
20260902041903 30 294 1.6 4.8 0.00 0.00 0.00 32 1015.5
20260902041803 30 295 1.6 4.8 0.00 0.00 0.00 32 1015.4
20260902041703 30 295 1.6 4.8 0.00 0.00 0.00 32 1015.5
20260902041603 30 295 1.6 4.8 0.00 0.00 0.00 32 1015.4
20260902041504 30 295 1.6 4.8 0.00 0.00 0.00 32 1015.4
20260902041424 30 295 1.6 4.8 0.00 0.00 0.00 32 1015.4
20260902041304 30 295 1.6 4.8 0.00 0.00 0.00 33 1015.5
20260902041203 30 295 1.6 4.8 0.00 0.00 0.00 33 1015.4
20260902041104 30 295 1.6 4.8 0.00 0.00 0.00 33 1015.4
20260902041003 30 295 1.6 4.8 0.00 0.00 0.00 33 1015.4
20260902040903 30 295 1.6 4.8 0.00 0.00 0.00 33 1015.4
20260902040803 30 295 1.6 4.8 0.00 0.00 0.00 33 1015.4
20260902040703 30 295 1.6 4.8 0.00 0.00 0.00 34 1015.4
20260902040624 30 295 1.6 4.8 0.00 0.00 0.00 34 1015.5
20260902040503 30 295 1.6 4.8 0.00 0.00 0.00 34 1015.4
20260902040403 30 295 1.6 4.8 0.00 0.00 0.00 34 1015.4
20260902040303 30 295 1.6 4.8 0.00 0.00 0.00 34 1015.3
20260902040203 30 295 1.6 4.8 0.00 0.00 0.00 34 1015.3
20260902040103 30 295 1.6 4.8 0.00 0.00 0.00 35 1015.2
20260902040003 30 295 1.6 4.8 0.00 0.00 0.00 35 1015.2
20260902035903 30 295 1.6 4.8 0.00 0.00 0.00 35 1015.1
20260902035803 30 295 1.6 4.8 0.00 0.00 0.00 35 1015.1
20260902035703 30 295 1.6 4.8 0.00 0.00 0.00 36 1015.2
20260902035603 30 295 1.6 4.8 0.00 0.00 0.00 36 1015.1
20260902035503 30 295 1.6 4.8 0.00 0.00 0.00 36 1015.1
20260902035425 30 295 1.6 4.8 0.00 0.00 0.00 36 1015.1
20260902035324 30 295 1.6 4.8 0.00 0.00 0.00 36 1015.1
20260902035203 30 295 1.6 4.8 0.00 0.00 0.00 36 1015.0
20260902035124 30 295 1.6 4.8 0.00 0.00 0.00 36 1015.1
20260902035024 30 295 1.6 4.8 0.00 0.00 0.00 37 1015.1
20260902034903 30 295 1.6 4.8 0.00 0.00 0.00 37 1015.1
20260902034803 30 295 1.6 4.8 0.00 0.00 0.00 37 1015.1
20260902034703 30 295 1.6 4.8 0.00 0.00 0.00 37 1015.0
20260902034603 30 295 1.6 4.8 0.00 0.00 0.00 37 1015.1
20260902034503 30 295 1.6 4.8 0.00 0.00 0.00 38 1015.0
20260902034424 30 295 1.6 4.8 0.00 0.00 0.00 38 1015.1
20260902034304 30 295 1.6 4.8 0.00 0.00 0.00 38 1015.0
20260902034224 30 295 1.6 4.8 0.00 0.00 0.00 38 1015.0
20260902034104 30 295 1.6 4.8 0.00 0.00 0.00 38 1015.0
20260902034003 30 295 1.6 4.8 0.00 0.00 0.00 38 1015.0
20260902033903 30 295 1.6 3.2 0.00 0.00 0.00 38 1015.0
20260902033803 30 295 1.6 3.2 0.00 0.00 0.00 39 1015.0
20260902033703 30 295 1.6 3.2 0.00 0.00 0.00 39 1015.0
20260902033603 30 295 1.6 3.2 0.00 0.00 0.00 39 1015.0
20260902033504 30 295 0.0 3.2 0.00 0.00 0.00 39 1015.0
20260902033403 30 295 0.0 3.2 0.00 0.00 0.00 39 1015.0
20260902033303 30 295 0.0 3.2 0.00 0.00 0.00 40 1015.0
20260902033203 30 295 0.0 3.2 0.00 0.00 0.00 40 1014.9
20260902033103 30 295 0.0 3.2 0.00 0.00 0.00 40 1014.9
20260902033003 30 295 0.0 3.2 0.00 0.00 0.00 40 1014.9
20260902032903 30 295 0.0 3.2 0.00 0.00 0.00 40 1014.9
20260902032804 30 295 0.0 3.2 0.00 0.00 0.00 40 1014.9
20260902032703 30 295 0.0 3.2 0.00 0.00 0.00 41 1014.8
20260902032603 30 295 0.0 3.2 0.00 0.00 0.00 41 1014.8
20260902032503 30 295 0.0 3.2 0.00 0.00 0.00 41 1014.9
20260902032403 30 295 0.0 3.2 0.00 0.00 0.00 41 1014.8
20260902032324 30 295 0.0 3.2 0.00 0.00 0.00 41 1014.8
20260902032203 31 295 1.6 3.2 0.00 0.00 0.00 41 1014.8
20260902032103 31 295 1.6 3.2 0.00 0.00 0.00 42 1014.7
20260902032024 31 295 1.6 3.2 0.00 0.00 0.00 42 1014.7
20260902031925 31 295 1.6 3.2 0.00 0.00 0.00 42 1014.7
20260902031803 31 295 1.6 3.2 0.00 0.00 0.00 42 1014.7
20260902031703 31 295 1.6 3.2 0.00 0.00 0.00 42 1014.7
20260902031603 31 295 1.6 3.2 0.00 0.00 0.00 42 1014.7
20260902031505 31 295 1.6 3.2 0.00 0.00 0.00 42 1014.6
20260902031424 31 295 1.6 3.2 0.00 0.00 0.00 42 1014.7
20260902031303 31 295 1.6 3.2 0.00 0.00 0.00 42 1014.7
20260902031203 31 295 1.6 3.2 0.00 0.00 0.00 43 1014.6
20260902031103 31 295 1.6 3.2 0.00 0.00 0.00 43 1014.6
20260902031003 31 295 1.6 3.2 0.00 0.00 0.00 43 1014.6
20260902030903 31 295 1.6 8.0 0.00 0.00 0.00 43 1014.5
20260902030803 31 296 1.6 8.0 0.00 0.00 0.00 43 1014.5
20260902030703 31 296 1.6 8.0 0.00 0.00 0.00 43 1014.5
20260902030603 31 296 1.6 8.0 0.00 0.00 0.00 43 1014.5
20260902030503 31 296 1.6 8.0 0.00 0.00 0.00 43 1014.5
20260902030403 31 296 1.6 8.0 0.00 0.00 0.00 43 1014.4
20260902030324 31 296 1.6 8.0 0.00 0.00 0.00 43 1014.4
20260902030203 31 296 1.6 8.0 0.00 0.00 0.00 43 1014.4
20260902030103 31 296 1.6 8.0 0.00 0.00 0.00 44 1014.4
20260902030003 31 296 1.6 8.0 0.00 0.00 0.00 44 1014.4
20260902025903 31 297 1.6 6.4 0.00 0.00 0.00 44 1014.4
20260902025804 31 297 1.6 6.4 0.00 0.00 0.00 44 1014.4
20260902025704 31 297 1.6 6.4 0.00 0.00 0.00 44 1014.3
20260902025603 31 297 1.6 6.4 0.00 0.00 0.00 44 1014.4
20260902025503 31 297 1.6 6.4 0.00 0.00 0.00 44 1014.3
20260902025403 31 297 1.6 6.4 0.00 0.00 0.00 44 1014.3
20260902025324 31 297 1.6 6.4 0.00 0.00 0.00 44 1014.4
20260902025203 31 297 1.6 6.4 0.00 0.00 0.00 44 1014.3
20260902025103 31 297 1.6 6.4 0.00 0.00 0.00 44 1014.3
20260902025003 31 297 1.6 6.4 0.00 0.00 0.00 44 1014.2
20260902024903 31 297 1.6 6.4 0.00 0.00 0.00 44 1014.2
20260902024803 31 297 3.2 6.4 0.00 0.00 0.00 45 1014.2
20260902024724 31 296 3.2 6.4 0.00 0.00 0.00 45 1014.2
20260902024603 31 296 1.6 6.4 0.00 0.00 0.00 45 1014.2
20260902024504 31 296 1.6 6.4 0.00 0.00 0.00 45 1014.2
20260902024403 31 296 1.6 6.4 0.00 0.00 0.00 45 1014.1
20260902024303 31 296 1.6 6.4 0.00 0.00 0.00 45 1014.1
20260902024203 31 296 1.6 6.4 0.00 0.00 0.00 45 1014.1
20260902024103 31 296 1.6 6.4 0.00 0.00 0.00 45 1014.1
20260902024004 31 295 1.6 6.4 0.00 0.00 0.00 45 1014.1
20260902023904 31 295 1.6 6.4 0.00 0.00 0.00 45 1014.1
20260902023803 31 295 1.6 4.8 0.00 0.00 0.00 45 1014.0
20260902023703 31 295 1.6 4.8 0.00 0.00 0.00 45 1014.1
20260902023603 31 295 1.6 4.8 0.00 0.00 0.00 45 1014.0
20260902023504 31 295 1.6 4.8 0.00 0.00 0.00 45 1014.0
20260902023404 31 295 1.6 4.8 0.00 0.00 0.00 45 1014.0
20260902023304 31 295 1.6 4.8 0.00 0.00 0.00 45 1014.0
20260902023203 31 295 1.6 6.4 0.00 0.00 0.00 45 1013.9
20260902023103 31 295 1.6 6.4 0.00 0.00 0.00 45 1014.0
20260902023003 31 295 1.6 6.4 0.00 0.00 0.00 45 1013.9
20260902022903 32 295 1.6 6.4 0.00 0.00 0.00 45 1013.9
20260902022803 32 295 1.6 6.4 0.00 0.00 0.00 45 1013.9
20260902022705 32 295 1.6 6.4 0.00 0.00 0.00 45 1013.9
20260902022603 32 295 1.6 6.4 0.00 0.00 0.00 45 1013.9
20260902022524 32 295 1.6 6.4 0.00 0.00 0.00 45 1013.9
20260902022403 32 295 1.6 6.4 0.00 0.00 0.00 45 1013.8
20260902022306 32 295 1.6 6.4 0.00 0.00 0.00 45 1013.8
20260902022203 32 295 1.6 6.4 0.00 0.00 0.00 45 1013.8
20260902022103 32 295 1.6 6.4 0.00 0.00 0.00 46 1013.8
20260902022024 32 295 1.6 6.4 0.00 0.00 0.00 46 1013.8
20260902021903 32 294 1.6 8.0 0.00 0.00 0.00 46 1013.8
20260902021824 32 294 3.2 8.0 0.00 0.00 0.00 46 1013.8
20260902021704 32 294 3.2 8.0 0.00 0.00 0.00 46 1013.8
20260902021603 32 294 3.2 8.0 0.00 0.00 0.00 46 1013.8
20260902021503 32 294 3.2 8.0 0.00 0.00 0.00 46 1013.7
20260902021403 32 294 3.2 8.0 0.00 0.00 0.00 46 1013.7
20260902021303 32 294 3.2 8.0 0.00 0.00 0.00 46 1013.6
20260902021203 32 295 3.2 8.0 0.00 0.00 0.00 46 1013.6
20260902021103 32 297 3.2 9.7 0.00 0.00 0.00 46 1013.6
20260902021003 32 299 3.2 9.7 0.00 0.00 0.00 46 1013.6
20260902020903 32 301 3.2 9.7 0.00 0.00 0.00 46 1013.6
20260902020824 32 303 3.2 9.7 0.00 0.00 0.00 46 1013.6
20260902020704 32 304 3.2 9.7 0.00 0.00 0.00 46 1013.6
20260902020603 32 306 3.2 9.7 0.00 0.00 0.00 46 1013.6
20260902020503 32 307 3.2 9.7 0.00 0.00 0.00 46 1013.6
20260902020425 32 307 3.2 9.7 0.00 0.00 0.00 46 1013.5
20260902020303 32 308 3.2 9.7 0.00 0.00 0.00 46 1013.5
20260902020203 32 309 3.2 9.7 0.00 0.00 0.00 46 1013.5
20260902020103 32 308 3.2 9.7 0.00 0.00 0.00 46 1013.5
20260902020003 32 310 4.8 9.7 0.00 0.00 0.00 46 1013.4
20260902015903 32 310 4.8 9.7 0.00 0.00 0.00 46 1013.4
20260902015803 32 312 4.8 9.7 0.00 0.00 0.00 46 1013.4
20260902015703 32 313 4.8 9.7 0.00 0.00 0.00 46 1013.4
20260902015603 32 315 4.8 9.7 0.00 0.00 0.00 46 1013.4
20260902015503 32 313 4.8 9.7 0.00 0.00 0.00 46 1013.4
20260902015403 32 312 4.8 9.7 0.00 0.00 0.00 46 1013.4
20260902015305 32 310 4.8 9.7 0.00 0.00 0.00 46 1013.3
20260902015206 32 307 4.8 11.3 0.00 0.00 0.00 46 1013.3
20260902015103 32 305 4.8 11.3 0.00 0.00 0.00 46 1013.3
20260902015003 32 298 4.8 11.3 0.00 0.00 0.00 46 1013.3
20260902014924 32 295 4.8 11.3 0.00 0.00 0.00 46 1013.3
20260902014803 32 289 3.2 11.3 0.00 0.00 0.00 46 1013.3
20260902014703 32 283 3.2 11.3 0.00 0.00 0.00 46 1013.3
20260902014624 32 280 3.2 11.3 0.00 0.00 0.00 46 1013.2
20260902014524 32 275 3.2 11.3 0.00 0.00 0.00 46 1013.2
20260902014403 32 272 3.2 11.3 0.00 0.00 0.00 46 1013.2
20260902014325 32 269 3.2 11.3 0.00 0.00 0.00 46 1013.2
20260902014203 32 266 3.2 8.0 0.00 0.00 0.00 45 1013.2
20260902014103 32 264 3.2 8.0 0.00 0.00 0.00 45 1013.2
20260902014003 32 263 3.2 8.0 0.00 0.00 0.00 46 1013.2
20260902013903 32 263 3.2 8.0 0.00 0.00 0.00 46 1013.2
20260902013803 32 263 3.2 8.0 0.00 0.00 0.00 46 1013.2
20260902013703 32 262 3.2 8.0 0.00 0.00 0.00 45 1013.2
20260902013603 32 262 1.6 8.0 0.00 0.00 0.00 45 1013.2
20260902013503 32 262 3.2 8.0 0.00 0.00 0.00 45 1013.2
20260902013404 32 262 3.2 8.0 0.00 0.00 0.00 45 1013.2
20260902013303 32 261 3.2 8.0 0.00 0.00 0.00 45 1013.2
20260902013224 32 261 3.2 6.4 0.00 0.00 0.00 45 1013.1
20260902013103 32 261 3.2 6.4 0.00 0.00 0.00 45 1013.1
20260902013003 32 260 3.2 8.0 0.00 0.00 0.00 45 1013.1
20260902012903 32 259 3.2 8.0 0.00 0.00 0.00 45 1013.1
20260902012824 33 259 3.2 8.0 0.00 0.00 0.00 45 1013.0
20260902012703 33 258 3.2 8.0 0.00 0.00 0.00 45 1013.0
20260902012603 33 258 3.2 8.0 0.00 0.00 0.00 45 1013.0
20260902012504 33 257 3.2 8.0 0.00 0.00 0.00 45 1013.0
20260902012424 33 257 3.2 8.0 0.00 0.00 0.00 45 1013.0
20260902012309 33 256 3.2 8.0 0.00 0.00 0.00 45 1013.0
20260902012203 33 255 3.2 8.0 0.00 0.00 0.00 45 1013.0
20260902012103 33 255 3.2 8.0 0.00 0.00 0.00 45 1012.9
20260902012003 33 255 3.2 8.0 0.00 0.00 0.00 45 1013.0
20260902011903 33 255 3.2 8.0 0.00 0.00 0.00 45 1013.0
20260902011803 33 255 3.2 8.0 0.00 0.00 0.00 45 1013.0
20260902011703 33 256 3.2 9.7 0.00 0.00 0.00 45 1013.0
20260902011603 33 255 3.2 9.7 0.00 0.00 0.00 45 1013.0
20260902011503 33 255 3.2 9.7 0.00 0.00 0.00 45 1013.0
20260902011403 33 255 3.2 9.7 0.00 0.00 0.00 45 1013.0
20260902011303 33 254 3.2 9.7 0.00 0.00 0.00 45 1013.0
20260902011203 33 254 3.2 9.7 0.00 0.00 0.00 44 1013.0
20260902011103 33 255 3.2 9.7 0.00 0.00 0.00 45 1013.0
20260902011003 33 256 3.2 9.7 0.00 0.00 0.00 44 1013.0
20260902010903 33 257 4.8 11.3 0.00 0.00 0.00 44 1013.0
20260902010803 33 259 4.8 11.3 0.00 0.00 0.00 44 1013.0
20260902010703 33 259 3.2 11.3 0.00 0.00 0.00 44 1013.0
20260902010603 33 260 3.2 11.3 0.00 0.00 0.00 44 1012.9
20260902010503 33 260 4.8 11.3 0.00 0.00 0.00 44 1012.9
20260902010403 33 261 4.8 11.3 0.00 0.00 0.00 44 1012.9
20260902010303 33 261 4.8 12.9 0.00 0.00 0.00 44 1012.9
20260902010203 33 260 4.8 12.9 0.00 0.00 0.00 44 1012.9
20260902010004 33 259 4.8 12.9 0.00 0.00 0.00 44 1013.0
20260902005904 33 259 6.4 16.1 0.00 0.00 0.00 44 1012.9
20260902005824 33 260 6.4 16.1 0.00 0.00 0.00 44 1012.9
20260902005724 33 258 6.4 16.1 0.00 0.00 0.00 44 1013.0
20260902005604 33 257 6.4 16.1 0.00 0.00 0.00 44 1013.0
20260902005503 33 258 6.4 16.1 0.00 0.00 0.00 44 1013.0
20260902005403 33 258 6.4 16.1 0.00 0.00 0.00 44 1013.0
20260902005306 33 258 6.4 16.1 0.00 0.00 0.00 43 1013.0
20260902005204 33 258 6.4 16.1 0.00 0.00 0.00 43 1013.0
20260902005103 34 258 6.4 16.1 0.00 0.00 0.00 43 1013.0
20260902005003 34 258 6.4 16.1 0.00 0.00 0.00 43 1013.0
20260902004903 34 257 6.4 14.5 0.00 0.00 0.00 43 1013.0
20260902004804 34 256 6.4 14.5 0.00 0.00 0.00 43 1013.0
20260902004703 34 257 6.4 14.5 0.00 0.00 0.00 43 1013.0
20260902004603 34 257 4.8 14.5 0.00 0.00 0.00 42 1013.0
20260902004503 34 257 4.8 14.5 0.00 0.00 0.00 42 1013.0
20260902004403 34 256 4.8 14.5 0.00 0.00 0.00 42 1013.0
20260902004303 34 256 4.8 14.5 0.00 0.00 0.00 41 1013.0
20260902004203 34 254 4.8 11.3 0.00 0.00 0.00 41 1013.1
20260902004103 34 252 4.8 11.3 0.00 0.00 0.00 41 1013.1
20260902004003 34 250 4.8 11.3 0.00 0.00 0.00 41 1013.1
20260902003903 34 249 4.8 11.3 0.00 0.00 0.00 41 1013.0
20260902003803 34 246 4.8 11.3 0.00 0.00 0.00 41 1013.1
20260902003703 35 244 4.8 11.3 0.00 0.00 0.00 41 1013.1
20260902003603 35 242 4.8 11.3 0.00 0.00 0.00 41 1013.0
20260902003503 35 238 4.8 11.3 0.00 0.00 0.00 41 1013.1
20260902003424 35 237 4.8 11.3 0.00 0.00 0.00 40 1013.1
20260902003303 35 230 4.8 9.7 0.00 0.00 0.00 40 1013.0
20260902003203 35 230 4.8 11.3 0.00 0.00 0.00 40 1013.0
20260902003104 35 230 4.8 11.3 0.00 0.00 0.00 40 1013.0
20260902003003 35 230 4.8 11.3 0.00 0.00 0.00 40 1013.1
20260902002903 35 231 4.8 11.3 0.00 0.00 0.00 40 1013.0
20260902002803 35 230 4.8 11.3 0.00 0.00 0.00 40 1013.1
20260902002703 35 229 4.8 12.9 0.00 0.00 0.00 40 1013.0
20260902002603 35 231 4.8 17.7 0.00 0.00 0.00 40 1013.0
20260902002503 35 234 4.8 17.7 0.00 0.00 0.00 40 1013.0
20260902002403 35 237 4.8 17.7 0.00 0.00 0.00 40 1013.0
20260902002306 35 240 6.4 17.7 0.00 0.00 0.00 40 1013.0
20260902002204 35 240 6.4 17.7 0.00 0.00 0.00 40 1012.9
20260902002103 35 243 6.4 17.7 0.00 0.00 0.00 40 1013.0
20260902002003 35 244 6.4 17.7 0.00 0.00 0.00 40 1012.9
20260902001903 35 246 6.4 17.7 0.00 0.00 0.00 40 1013.0
20260902001803 35 246 6.4 17.7 0.00 0.00 0.00 40 1013.0
20260902001703 35 249 6.4 17.7 0.00 0.00 0.00 40 1013.0
20260902001603 35 249 6.4 12.9 0.00 0.00 0.00 40 1013.0
20260902001503 35 250 6.4 12.9 0.00 0.00 0.00 40 1013.0
20260902001403 35 250 6.4 16.1 0.00 0.00 0.00 40 1012.9
20260902001303 35 249 8.0 16.1 0.00 0.00 0.00 40 1013.0
20260902001224 35 249 8.0 16.1 0.00 0.00 0.00 40 1013.0
20260902001103 35 248 8.0 19.3 0.00 0.00 0.00 40 1013.0
20260902001003 35 247 8.0 19.3 0.00 0.00 0.00 40 1013.0
20260902000904 35 245 8.0 19.3 0.00 0.00 0.00 40 1013.0
20260902000803 35 244 8.0 19.3 0.00 0.00 0.00 40 1013.0
20260902000703 35 242 9.7 19.3 0.00 0.00 0.00 40 1013.0
20260902000624 35 242 8.0 19.3 0.00 0.00 0.00 40 1013.0
20260902000503 35 240 8.0 19.3 0.00 0.00 0.00 39 1013.1
20260902000403 35 241 8.0 19.3 0.00 0.00 0.00 40 1013.0
20260902000304 35 242 8.0 19.3 0.00 0.00 0.00 39 1013.0
20260902000204 35 242 8.0 19.3 0.00 0.00 0.00 39 1013.0
20260902000103 35 241 6.4 17.7 0.00 0.00 0.00 39 1013.0
20260902000003 35 243 6.4 17.7 0.00 0.00 0.00 39 1013.0
20260901235903 35 246 6.4 17.7 0.00 0.00 0.00 40 1013.0
20260901235803 35 248 6.4 17.7 0.00 0.00 0.00 39 1013.0
20260901235703 35 252 6.4 17.7 0.00 0.00 0.00 39 1013.0
20260901235603 35 254 6.4 14.5 0.00 0.00 0.00 39 1013.0
20260901235524 36 255 4.8 14.5 0.00 0.00 0.00 39 1013.0
20260901235403 36 257 4.8 9.7 0.00 0.00 0.00 39 1013.0
20260901235324 36 258 4.8 11.3 0.00 0.00 0.00 39 1013.0
20260901235203 36 255 4.8 11.3 0.00 0.00 0.00 38 1013.0
20260901235104 36 252 6.4 11.3 0.00 0.00 0.00 39 1013.0
20260901235003 36 249 6.4 12.9 0.00 0.00 0.00 39 1013.0
20260901234903 36 248 6.4 12.9 0.00 0.00 0.00 38 1013.0
20260901234803 36 248 6.4 12.9 0.00 0.00 0.00 38 1012.9
20260901234703 36 248 8.0 14.5 0.00 0.00 0.00 39 1012.9
20260901234624 36 247 8.0 14.5 0.00 0.00 0.00 39 1012.9
20260901234503 36 248 8.0 14.5 0.00 0.00 0.00 38 1012.9
20260901234424 36 248 8.0 14.5 0.00 0.00 0.00 38 1012.9
20260901234303 36 248 8.0 14.5 0.00 0.00 0.00 38 1013.0
20260901234203 36 249 8.0 14.5 0.00 0.00 0.00 38 1013.0
20260901234103 36 252 8.0 14.5 0.00 0.00 0.00 38 1013.0
20260901234003 36 255 8.0 14.5 0.00 0.00 0.00 39 1013.0
20260901233903 36 257 8.0 14.5 0.00 0.00 0.00 38 1012.9
20260901233824 36 257 8.0 14.5 0.00 0.00 0.00 38 1013.0
20260901233703 36 257 8.0 14.5 0.00 0.00 0.00 38 1012.9
20260901233603 36 258 8.0 14.5 0.00 0.00 0.00 38 1012.9
20260901233503 36 256 8.0 14.5 0.00 0.00 0.00 38 1012.9
20260901233403 36 255 8.0 14.5 0.00 0.00 0.00 38 1012.9
20260901233303 36 255 8.0 14.5 0.00 0.00 0.00 38 1012.9
20260901233203 36 256 8.0 16.1 0.00 0.00 0.00 38 1012.8
20260901233103 36 256 8.0 16.1 0.00 0.00 0.00 38 1012.9
20260901233003 36 257 8.0 16.1 0.00 0.00 0.00 38 1012.8
20260901232903 36 259 8.0 16.1 0.00 0.00 0.00 38 1012.8
20260901232803 36 262 8.0 16.1 0.00 0.00 0.00 38 1012.9
20260901232703 36 260 8.0 16.1 0.00 0.00 0.00 38 1012.8
20260901232604 36 259 6.4 16.1 0.00 0.00 0.00 38 1012.8
20260901232503 36 258 6.4 16.1 0.00 0.00 0.00 38 1012.8
20260901232403 36 256 6.4 16.1 0.00 0.00 0.00 37 1012.8
20260901232324 36 253 6.4 16.1 0.00 0.00 0.00 37 1012.8
20260901232224 36 251 4.8 16.1 0.00 0.00 0.00 37 1012.9
20260901232103 36 247 4.8 11.3 0.00 0.00 0.00 37 1012.8
20260901232024 36 245 6.4 11.3 0.00 0.00 0.00 37 1012.9
20260901231924 36 236 6.4 12.9 0.00 0.00 0.00 38 1012.9
20260901231804 36 232 6.4 12.9 0.00 0.00 0.00 38 1012.9
20260901231703 36 230 4.8 12.9 0.00 0.00 0.00 38 1012.9
20260901231604 36 232 6.4 14.5 0.00 0.00 0.00 38 1012.8
20260901231503 36 234 6.4 14.5 0.00 0.00 0.00 37 1012.8
20260901231403 36 236 6.4 14.5 0.00 0.00 0.00 37 1012.8
20260901231324 36 237 6.4 14.5 0.00 0.00 0.00 37 1012.8
20260901231203 36 238 6.4 14.5 0.00 0.00 0.00 37 1012.8
20260901231103 36 239 6.4 14.5 0.00 0.00 0.00 37 1012.9
20260901231003 36 239 4.8 14.5 0.00 0.00 0.00 37 1012.8
20260901230903 36 244 4.8 14.5 0.00 0.00 0.00 37 1012.9
20260901230803 36 246 6.4 14.5 0.00 0.00 0.00 37 1012.9
20260901230703 36 247 4.8 14.5 0.00 0.00 0.00 37 1012.9
20260901230603 36 249 4.8 14.5 0.00 0.00 0.00 38 1012.9
20260901230524 36 248 4.8 12.9 0.00 0.00 0.00 38 1012.9
20260901230403 36 250 4.8 12.9 0.00 0.00 0.00 38 1012.9
20260901230303 36 255 4.8 12.9 0.00 0.00 0.00 38 1012.9
20260901230203 36 261 4.8 12.9 0.00 0.00 0.00 38 1012.9
20260901230124 36 267 4.8 12.9 0.00 0.00 0.00 38 1012.9
20260901230004 36 280 4.8 12.9 0.00 0.00 0.00 38 1012.9
20260901225903 36 291 4.8 12.9 0.00 0.00 0.00 38 1012.9
20260901225803 36 307 6.4 20.9 0.00 0.00 0.00 38 1012.9
20260901225703 36 315 6.4 20.9 0.00 0.00 0.00 38 1012.8
20260901225603 36 322 6.4 20.9 0.00 0.00 0.00 38 1012.9
20260901225503 36 323 6.4 20.9 0.00 0.00 0.00 38 1012.9
20260901225403 36 320 6.4 20.9 0.00 0.00 0.00 38 1012.9
20260901225306 36 314 6.4 20.9 0.00 0.00 0.00 38 1012.9
20260901225203 36 301 6.4 20.9 0.00 0.00 0.00 38 1012.9
20260901225103 36 292 6.4 20.9 0.00 0.00 0.00 38 1012.9
20260901225003 36 282 6.4 20.9 0.00 0.00 0.00 38 1012.9
20260901224903 36 274 6.4 20.9 0.00 0.00 0.00 38 1012.9
20260901224803 36 260 4.8 16.1 0.00 0.00 0.00 39 1012.8
20260901224724 36 254 4.8 12.9 0.00 0.00 0.00 39 1012.9
20260901224603 36 245 4.8 12.9 0.00 0.00 0.00 39 1012.9
20260901224503 36 243 4.8 12.9 0.00 0.00 0.00 39 1012.9
20260901224403 36 242 4.8 9.7 0.00 0.00 0.00 39 1012.9
20260901224303 36 242 4.8 9.7 0.00 0.00 0.00 39 1012.9
20260901224203 36 243 4.8 9.7 0.00 0.00 0.00 39 1012.9
20260901224125 36 243 6.4 9.7 0.00 0.00 0.00 38 1012.9
20260901224003 36 247 6.4 20.9 0.00 0.00 0.00 38 1013.0
20260901223924 36 248 6.4 20.9 0.00 0.00 0.00 38 1013.0
20260901223803 36 250 6.4 20.9 0.00 0.00 0.00 38 1013.0
20260901223703 36 251 8.0 20.9 0.00 0.00 0.00 38 1013.1
20260901223624 36 252 8.0 20.9 0.00 0.00 0.00 39 1013.1
20260901223503 36 253 8.0 20.9 0.00 0.00 0.00 39 1013.1
20260901223424 36 253 6.4 20.9 0.00 0.00 0.00 39 1013.0
20260901223303 36 253 6.4 20.9 0.00 0.00 0.00 39 1013.1
20260901223203 36 252 6.4 20.9 0.00 0.00 0.00 39 1013.0
20260901223103 36 251 6.4 20.9 0.00 0.00 0.00 39 1013.0
20260901223024 36 250 6.4 20.9 0.00 0.00 0.00 39 1013.1
20260901222903 36 247 6.4 14.5 0.00 0.00 0.00 39 1013.1
20260901222803 36 245 6.4 12.9 0.00 0.00 0.00 39 1013.1
20260901222703 36 245 6.4 16.1 0.00 0.00 0.00 39 1013.1
20260901222624 36 245 6.4 16.1 0.00 0.00 0.00 39 1013.1
20260901222503 36 244 6.4 16.1 0.00 0.00 0.00 39 1013.1
20260901222403 36 245 6.4 16.1 0.00 0.00 0.00 39 1013.1
20260901222306 36 245 6.4 16.1 0.00 0.00 0.00 39 1013.1
20260901222224 36 246 6.4 16.1 0.00 0.00 0.00 39 1013.1
20260901222103 36 249 8.0 16.1 0.00 0.00 0.00 39 1013.1
20260901222003 36 249 8.0 16.1 0.00 0.00 0.00 39 1013.0
20260901221903 36 251 6.4 16.1 0.00 0.00 0.00 38 1013.0
20260901221824 36 251 6.4 16.1 0.00 0.00 0.00 38 1013.0
20260901221703 36 246 6.4 14.5 0.00 0.00 0.00 38 1013.0
20260901221603 36 246 6.4 14.5 0.00 0.00 0.00 38 1013.0
20260901221503 36 246 6.4 14.5 0.00 0.00 0.00 38 1013.0
20260901221403 36 245 8.0 16.1 0.00 0.00 0.00 38 1013.0
20260901221303 36 243 8.0 16.1 0.00 0.00 0.00 37 1012.9
20260901221203 36 242 8.0 16.1 0.00 0.00 0.00 37 1013.0
20260901221124 37 242 8.0 16.1 0.00 0.00 0.00 37 1013.1
20260901221003 37 242 6.4 16.1 0.00 0.00 0.00 37 1013.0
20260901220924 37 240 6.4 16.1 0.00 0.00 0.00 38 1013.0
20260901220824 37 240 8.0 16.1 0.00 0.00 0.00 37 1013.0
20260901220703 37 244 6.4 16.1 0.00 0.00 0.00 37 1013.0
20260901220603 37 242 6.4 16.1 0.00 0.00 0.00 37 1013.0
20260901220503 37 239 6.4 16.1 0.00 0.00 0.00 37 1013.0
20260901220403 37 235 6.4 14.5 0.00 0.00 0.00 37 1013.0
20260901220303 37 238 6.4 14.5 0.00 0.00 0.00 37 1013.0
20260901220205 37 240 6.4 14.5 0.00 0.00 0.00 37 1013.0
20260901220124 37 239 6.4 14.5 0.00 0.00 0.00 37 1013.0
20260901220003 36 238 6.4 14.5 0.00 0.00 0.00 37 1013.0
20260901215903 36 233 6.4 14.5 0.00 0.00 0.00 37 1013.0
20260901215803 36 228 6.4 14.5 0.00 0.00 0.00 37 1013.0
20260901215703 37 220 8.0 14.5 0.00 0.00 0.00 37 1013.0
20260901215603 37 214 8.0 14.5 0.00 0.00 0.00 37 1013.0
20260901215524 36 214 8.0 14.5 0.00 0.00 0.00 37 1013.1
20260901215403 36 211 8.0 14.5 0.00 0.00 0.00 37 1013.0
20260901215306 36 210 6.4 14.5 0.00 0.00 0.00 37 1013.1
20260901215203 36 208 6.4 14.5 0.00 0.00 0.00 37 1013.1
20260901215124 36 209 6.4 14.5 0.00 0.00 0.00 37 1013.1
20260901215003 36 212 6.4 14.5 0.00 0.00 0.00 37 1013.1
20260901214903 36 216 6.4 14.5 0.00 0.00 0.00 37 1013.1
20260901214803 36 220 6.4 14.5 0.00 0.00 0.00 37 1013.1
20260901214703 36 226 6.4 14.5 0.00 0.00 0.00 37 1013.0
20260901214603 36 234 6.4 14.5 0.00 0.00 0.00 37 1013.1
20260901214503 36 239 4.8 14.5 0.00 0.00 0.00 38 1013.1
20260901214403 36 245 4.8 14.5 0.00 0.00 0.00 37 1013.1
20260901214303 36 245 6.4 14.5 0.00 0.00 0.00 37 1013.1
20260901214224 36 246 6.4 14.5 0.00 0.00 0.00 37 1013.1
20260901214103 36 246 6.4 17.7 0.00 0.00 0.00 38 1013.1
20260901214003 36 249 6.4 17.7 0.00 0.00 0.00 38 1013.1
20260901213925 36 250 6.4 17.7 0.00 0.00 0.00 38 1013.1
20260901213824 36 251 6.4 17.7 0.00 0.00 0.00 38 1013.1
20260901213703 36 252 6.4 17.7 0.00 0.00 0.00 39 1013.2
20260901213603 36 253 6.4 17.7 0.00 0.00 0.00 39 1013.2
20260901213503 36 254 6.4 17.7 0.00 0.00 0.00 38 1013.2
20260901213424 36 255 6.4 17.7 0.00 0.00 0.00 38 1013.2
20260901213324 36 255 6.4 17.7 0.00 0.00 0.00 38 1013.2
20260901213203 36 250 6.4 14.5 0.00 0.00 0.00 39 1013.1
20260901213124 36 247 4.8 14.5 0.00 0.00 0.00 39 1013.1
20260901213003 36 237 4.8 14.5 0.00 0.00 0.00 38 1013.1
20260901212903 36 232 4.8 12.9 0.00 0.00 0.00 38 1013.1
20260901212803 36 226 4.8 11.3 0.00 0.00 0.00 38 1013.1
20260901212703 36 220 4.8 11.3 0.00 0.00 0.00 38 1013.1
20260901212603 36 215 4.8 11.3 0.00 0.00 0.00 38 1013.1
20260901212503 36 209 4.8 11.3 0.00 0.00 0.00 37 1013.2
20260901212403 36 205 4.8 11.3 0.00 0.00 0.00 38 1013.1
20260901212306 36 193 3.2 9.7 0.00 0.00 0.00 38 1013.1
20260901212203 36 190 3.2 6.4 0.00 0.00 0.00 39 1013.1
20260901212104 35 193 4.8 14.5 0.00 0.00 0.00 39 1013.2
20260901212003 35 196 4.8 14.5 0.00 0.00 0.00 39 1013.2
20260901211903 35 198 4.8 14.5 0.00 0.00 0.00 38 1013.2
20260901211803 35 201 4.8 14.5 0.00 0.00 0.00 39 1013.3
20260901211703 35 205 4.8 14.5 0.00 0.00 0.00 38 1013.3
20260901211624 35 208 4.8 14.5 0.00 0.00 0.00 38 1013.3
20260901211503 35 213 4.8 14.5 0.00 0.00 0.00 39 1013.3
20260901211403 35 220 6.4 14.5 0.00 0.00 0.00 39 1013.3
20260901211304 35 224 6.4 14.5 0.00 0.00 0.00 39 1013.3
20260901211203 35 231 6.4 14.5 0.00 0.00 0.00 39 1013.3
20260901211103 35 236 6.4 16.1 0.00 0.00 0.00 39 1013.3
20260901211003 35 241 6.4 16.1 0.00 0.00 0.00 39 1013.3
20260901210924 35 238 6.4 16.1 0.00 0.00 0.00 39 1013.4
20260901210803 35 241 6.4 16.1 0.00 0.00 0.00 39 1013.4
20260901210704 35 243 6.4 16.1 0.00 0.00 0.00 40 1013.4
20260901210603 35 243 6.4 16.1 0.00 0.00 0.00 39 1013.3
20260901210524 35 243 4.8 16.1 0.00 0.00 0.00 39 1013.4
20260901210403 35 242 4.8 16.1 0.00 0.00 0.00 39 1013.4
20260901210303 35 242 4.8 16.1 0.00 0.00 0.00 39 1013.5
20260901210203 35 241 4.8 16.1 0.00 0.00 0.00 39 1013.5
20260901210003 36 240 3.2 6.4 0.00 0.00 0.00 39 1013.4
20260901205924 36 247 3.2 8.0 0.00 0.00 0.00 39 1013.5
20260901205804 36 248 3.2 8.0 0.00 0.00 0.00 39 1013.5
20260901205703 36 250 3.2 14.5 0.00 0.00 0.00 38 1013.5
20260901205624 36 250 4.8 14.5 0.00 0.00 0.00 39 1013.6
20260901205503 36 254 4.8 14.5 0.00 0.00 0.00 39 1013.6
20260901205403 36 255 4.8 14.5 0.00 0.00 0.00 38 1013.6
20260901205306 36 254 6.4 14.5 0.00 0.00 0.00 38 1013.6
20260901205203 36 249 6.4 14.5 0.00 0.00 0.00 38 1013.6
20260901205103 36 246 6.4 14.5 0.00 0.00 0.00 38 1013.7
20260901205024 36 244 6.4 14.5 0.00 0.00 0.00 38 1013.7
20260901204924 36 241 6.4 14.5 0.00 0.00 0.00 38 1013.6
20260901204803 36 236 6.4 14.5 0.00 0.00 0.00 38 1013.7
20260901204703 36 227 6.4 14.5 0.00 0.00 0.00 37 1013.7
20260901204603 36 212 6.4 14.5 0.00 0.00 0.00 37 1013.6
20260901204503 36 195 6.4 12.9 0.00 0.00 0.00 37 1013.7
20260901204403 36 183 6.4 12.9 0.00 0.00 0.00 38 1013.7
20260901204303 36 178 6.4 12.9 0.00 0.00 0.00 37 1013.7
20260901204203 36 179 6.4 12.9 0.00 0.00 0.00 37 1013.7
20260901204103 36 175 6.4 12.9 0.00 0.00 0.00 37 1013.8
20260901204003 36 175 6.4 12.9 0.00 0.00 0.00 37 1013.8
20260901203903 36 178 6.4 12.9 0.00 0.00 0.00 38 1013.8
20260901203803 36 183 6.4 12.9 0.00 0.00 0.00 37 1013.8
20260901203703 36 190 6.4 12.9 0.00 0.00 0.00 38 1013.8
20260901203603 36 202 4.8 11.3 0.00 0.00 0.00 37 1013.8
20260901203503 37 218 4.8 11.3 0.00 0.00 0.00 37 1013.8
20260901203403 37 233 3.2 9.7 0.00 0.00 0.00 38 1013.8
20260901203303 37 242 3.2 9.7 0.00 0.00 0.00 38 1013.8
20260901203203 36 246 3.2 9.7 0.00 0.00 0.00 37 1013.8
20260901203124 36 248 4.8 11.3 0.00 0.00 0.00 37 1013.9
20260901203003 37 248 4.8 11.3 0.00 0.00 0.00 37 1013.9
20260901202903 37 243 3.2 11.3 0.00 0.00 0.00 36 1013.9
20260901202803 37 240 4.8 11.3 0.00 0.00 0.00 37 1013.9
20260901202703 37 240 4.8 11.3 0.00 0.00 0.00 37 1013.9
20260901202603 36 239 4.8 11.3 0.00 0.00 0.00 37 1013.9
20260901202524 36 237 4.8 11.3 0.00 0.00 0.00 37 1014.0
20260901202403 36 239 4.8 11.3 0.00 0.00 0.00 37 1014.0
20260901202306 36 241 6.4 11.3 0.00 0.00 0.00 37 1014.0
20260901202224 36 242 6.4 11.3 0.00 0.00 0.00 37 1014.0
20260901202103 36 245 6.4 14.5 0.00 0.00 0.00 37 1014.0
20260901202003 36 250 6.4 14.5 0.00 0.00 0.00 37 1014.1
20260901201903 36 258 6.4 14.5 0.00 0.00 0.00 37 1014.1
20260901201803 36 265 6.4 14.5 0.00 0.00 0.00 36 1014.1
20260901201703 37 268 6.4 14.5 0.00 0.00 0.00 36 1014.2
20260901201603 37 272 6.4 14.5 0.00 0.00 0.00 37 1014.1
20260901201503 37 277 6.4 14.5 0.00 0.00 0.00 37 1014.2
20260901201403 37 280 6.4 14.5 0.00 0.00 0.00 37 1014.1
20260901201303 36 276 4.8 14.5 0.00 0.00 0.00 37 1014.2
20260901201224 36 277 4.8 14.5 0.00 0.00 0.00 37 1014.2
20260901201103 37 279 4.8 14.5 0.00 0.00 0.00 37 1014.1
20260901201003 37 279 6.4 14.5 0.00 0.00 0.00 36 1014.2
20260901200903 37 275 4.8 14.5 0.00 0.00 0.00 37 1014.2
20260901200803 37 276 4.8 14.5 0.00 0.00 0.00 37 1014.1
20260901200703 37 277 4.8 14.5 0.00 0.00 0.00 37 1014.2
20260901200603 37 280 4.8 14.5 0.00 0.00 0.00 36 1014.2
20260901200524 37 283 4.8 14.5 0.00 0.00 0.00 37 1014.3
20260901200424 37 289 4.8 14.5 0.00 0.00 0.00 37 1014.3
20260901200303 36 291 4.8 14.5 0.00 0.00 0.00 37 1014.2
20260901200203 36 293 3.2 14.5 0.00 0.00 0.00 37 1014.2
20260901200103 36 295 3.2 11.3 0.00 0.00 0.00 37 1014.3
20260901200003 37 297 3.2 11.3 0.00 0.00 0.00 36 1014.3
20260901195903 36 298 3.2 11.3 0.00 0.00 0.00 37 1014.3
20260901195803 36 297 3.2 11.3 0.00 0.00 0.00 37 1014.3
20260901195703 36 292 3.2 11.3 0.00 0.00 0.00 37 1014.3
20260901195603 36 286 4.8 11.3 0.00 0.00 0.00 37 1014.3
20260901195503 36 282 3.2 11.3 0.00 0.00 0.00 37 1014.4
20260901195405 36 266 4.8 11.3 0.00 0.00 0.00 38 1014.4
20260901195306 36 247 4.8 11.3 0.00 0.00 0.00 37 1014.4
20260901195203 36 241 4.8 11.3 0.00 0.00 0.00 37 1014.4
20260901195124 36 235 4.8 11.3 0.00 0.00 0.00 38 1014.5
20260901195003 36 221 4.8 11.3 0.00 0.00 0.00 38 1014.4
20260901194903 36 212 4.8 11.3 0.00 0.00 0.00 38 1014.4
20260901194824 36 210 4.8 11.3 0.00 0.00 0.00 38 1014.5
20260901194703 36 208 4.8 11.3 0.00 0.00 0.00 37 1014.5
20260901194625 36 206 4.8 11.3 0.00 0.00 0.00 37 1014.5
20260901194524 36 205 4.8 11.3 0.00 0.00 0.00 38 1014.5
20260901194403 36 209 4.8 16.1 0.00 0.00 0.00 38 1014.6
20260901194303 36 218 4.8 16.1 0.00 0.00 0.00 38 1014.5
20260901194224 36 222 6.4 16.1 0.00 0.00 0.00 38 1014.6
20260901194103 36 224 6.4 16.1 0.00 0.00 0.00 38 1014.6
20260901194003 36 224 6.4 16.1 0.00 0.00 0.00 37 1014.5
20260901193903 36 226 4.8 16.1 0.00 0.00 0.00 38 1014.6
20260901193803 36 230 4.8 16.1 0.00 0.00 0.00 38 1014.6
20260901193703 36 234 6.4 16.1 0.00 0.00 0.00 38 1014.6
20260901193603 36 230 6.4 16.1 0.00 0.00 0.00 38 1014.6
20260901193503 36 230 4.8 16.1 0.00 0.00 0.00 38 1014.6
20260901193403 36 231 4.8 11.3 0.00 0.00 0.00 37 1014.7
20260901193303 36 230 4.8 11.3 0.00 0.00 0.00 37 1014.8
20260901193203 36 230 4.8 11.3 0.00 0.00 0.00 37 1014.8
20260901193124 36 232 3.2 11.3 0.00 0.00 0.00 37 1014.8
20260901193003 36 244 3.2 11.3 0.00 0.00 0.00 37 1014.8
20260901192903 36 255 3.2 11.3 0.00 0.00 0.00 37 1014.8
20260901192824 36 259 3.2 11.3 0.00 0.00 0.00 37 1014.7
20260901192703 36 266 3.2 12.9 0.00 0.00 0.00 37 1014.7
20260901192603 36 272 3.2 12.9 0.00 0.00 0.00 36 1014.8
20260901192503 36 263 3.2 12.9 0.00 0.00 0.00 36 1014.8
20260901192403 36 260 3.2 12.9 0.00 0.00 0.00 37 1014.8
20260901192306 36 260 3.2 12.9 0.00 0.00 0.00 36 1014.8
20260901192203 36 258 3.2 12.9 0.00 0.00 0.00 36 1014.8
20260901192103 36 258 4.8 12.9 0.00 0.00 0.00 36 1014.9
20260901192003 36 258 4.8 12.9 0.00 0.00 0.00 36 1014.9
20260901191903 36 255 4.8 12.9 0.00 0.00 0.00 36 1014.9
20260901191803 36 248 4.8 12.9 0.00 0.00 0.00 36 1014.9
20260901191703 36 244 4.8 11.3 0.00 0.00 0.00 36 1014.9
20260901191603 36 246 3.2 11.3 0.00 0.00 0.00 36 1014.9
20260901191524 36 252 4.8 11.3 0.00 0.00 0.00 36 1014.9
20260901191403 36 258 4.8 11.3 0.00 0.00 0.00 36 1014.9
20260901191303 36 260 4.8 11.3 0.00 0.00 0.00 36 1014.9
20260901191203 36 264 4.8 11.3 0.00 0.00 0.00 36 1015.0
20260901191103 36 267 4.8 11.3 0.00 0.00 0.00 36 1014.9
20260901191024 36 275 4.8 11.3 0.00 0.00 0.00 36 1014.9
20260901190904 36 277 4.8 11.3 0.00 0.00 0.00 36 1014.9
20260901190803 36 276 4.8 11.3 0.00 0.00 0.00 36 1014.9
20260901190703 36 274 4.8 11.3 0.00 0.00 0.00 36 1015.0
20260901190603 36 279 4.8 11.3 0.00 0.00 0.00 36 1015.0
20260901190503 36 283 4.8 11.3 0.00 0.00 0.00 36 1015.0
20260901190403 36 286 4.8 11.3 0.00 0.00 0.00 36 1015.0
20260901190303 36 290 4.8 11.3 0.00 0.00 0.00 36 1015.0
20260901190224 36 292 4.8 11.3 0.00 0.00 0.00 36 1015.0
20260901190124 36 295 4.8 11.3 0.00 0.00 0.00 36 1015.0
20260901190003 36 290 4.8 11.3 0.00 0.00 0.00 36 1015.0
20260901185903 36 285 4.8 11.3 0.00 0.00 0.00 35 1015.1
20260901185803 36 277 4.8 11.3 0.00 0.00 0.00 35 1015.1
20260901185703 36 279 4.8 11.3 0.00 0.00 0.00 36 1015.1
20260901185603 36 246 4.8 11.3 0.00 0.00 0.00 36 1015.1
20260901185503 36 224 4.8 9.7 0.00 0.00 0.00 36 1015.2
20260901185403 35 215 4.8 9.7 0.00 0.00 0.00 36 1015.2
20260901185305 35 206 4.8 9.7 0.00 0.00 0.00 37 1015.2
20260901185203 35 200 4.8 9.7 0.00 0.00 0.00 36 1015.2
20260901185103 35 198 3.2 9.7 0.00 0.00 0.00 36 1015.2
20260901185003 35 203 4.8 9.7 0.00 0.00 0.00 36 1015.3
20260901184903 35 213 4.8 9.7 0.00 0.00 0.00 36 1015.3
20260901184803 35 220 4.8 9.7 0.00 0.00 0.00 36 1015.3
20260901184703 36 224 4.8 9.7 0.00 0.00 0.00 35 1015.3
20260901184603 35 228 4.8 9.7 0.00 0.00 0.00 36 1015.4
20260901184503 35 229 4.8 9.7 0.00 0.00 0.00 36 1015.4
20260901184424 35 229 4.8 11.3 0.00 0.00 0.00 36 1015.4
20260901184303 35 229 4.8 11.3 0.00 0.00 0.00 36 1015.4
20260901184203 35 230 4.8 11.3 0.00 0.00 0.00 36 1015.4
20260901184103 35 230 4.8 11.3 0.00 0.00 0.00 36 1015.5
20260901184003 35 230 4.8 11.3 0.00 0.00 0.00 36 1015.5
20260901183924 35 231 4.8 11.3 0.00 0.00 0.00 36 1015.5
20260901183803 35 232 4.8 11.3 0.00 0.00 0.00 36 1015.5
20260901183703 35 229 4.8 11.3 0.00 0.00 0.00 36 1015.5
20260901183624 35 228 4.8 11.3 0.00 0.00 0.00 36 1015.5
20260901183503 35 228 3.2 11.3 0.00 0.00 0.00 36 1015.5
20260901183403 35 231 3.2 11.3 0.00 0.00 0.00 36 1015.6
20260901183324 35 232 4.8 11.3 0.00 0.00 0.00 36 1015.7
20260901183203 35 235 3.2 11.3 0.00 0.00 0.00 36 1015.6
20260901183103 35 239 4.8 11.3 0.00 0.00 0.00 37 1015.7
20260901183004 35 242 4.8 11.3 0.00 0.00 0.00 37 1015.7
20260901182903 34 245 4.8 11.3 0.00 0.00 0.00 36 1015.7
20260901182803 34 249 4.8 11.3 0.00 0.00 0.00 37 1015.7
20260901182703 34 252 4.8 11.3 0.00 0.00 0.00 37 1015.7
20260901182603 34 253 4.8 11.3 0.00 0.00 0.00 37 1015.7
20260901182503 34 255 4.8 11.3 0.00 0.00 0.00 36 1015.7
20260901182403 34 258 4.8 11.3 0.00 0.00 0.00 36 1015.8
20260901182305 34 260 4.8 9.7 0.00 0.00 0.00 37 1015.8
20260901182203 34 260 4.8 9.7 0.00 0.00 0.00 36 1015.8
20260901182103 34 260 4.8 9.7 0.00 0.00 0.00 36 1015.8
20260901182003 35 260 4.8 9.7 0.00 0.00 0.00 36 1015.8
20260901181924 35 259 4.8 9.7 0.00 0.00 0.00 36 1015.9
20260901181803 35 255 3.2 9.7 0.00 0.00 0.00 36 1015.8
20260901181703 35 255 3.2 8.0 0.00 0.00 0.00 36 1015.8
20260901181624 35 257 4.8 8.0 0.00 0.00 0.00 36 1015.9
20260901181503 34 260 4.8 9.7 0.00 0.00 0.00 36 1015.9
20260901181406 34 266 4.8 9.7 0.00 0.00 0.00 36 1015.9
20260901181303 34 273 4.8 11.3 0.00 0.00 0.00 36 1015.9
20260901181203 35 272 4.8 14.5 0.00 0.00 0.00 36 1015.9
20260901181124 35 273 4.8 14.5 0.00 0.00 0.00 36 1015.9
20260901181003 35 277 4.8 14.5 0.00 0.00 0.00 36 1015.9
20260901180903 35 278 4.8 14.5 0.00 0.00 0.00 35 1016.0
20260901180803 35 282 4.8 14.5 0.00 0.00 0.00 35 1016.0
20260901180703 35 284 4.8 14.5 0.00 0.00 0.00 35 1016.0
20260901180603 35 282 4.8 14.5 0.00 0.00 0.00 35 1015.9
20260901180503 35 278 4.8 14.5 0.00 0.00 0.00 36 1015.9
20260901180424 35 274 4.8 14.5 0.00 0.00 0.00 36 1016.0
20260901180303 35 264 4.8 14.5 0.00 0.00 0.00 36 1016.0
20260901180203 35 264 4.8 11.3 0.00 0.00 0.00 35 1016.0
20260901180103 35 263 4.8 11.3 0.00 0.00 0.00 35 1016.0
20260901180003 35 262 4.8 11.3 0.00 0.00 0.00 35 1016.1
20260901175903 35 259 4.8 11.3 0.00 0.00 0.00 35 1016.1
20260901175803 34 256 4.8 11.3 0.00 0.00 0.00 35 1016.1
20260901175703 34 248 4.8 12.9 0.00 0.00 0.00 36 1016.2
20260901175603 34 247 4.8 12.9 0.00 0.00 0.00 36 1016.2
20260901175503 34 244 4.8 12.9 0.00 0.00 0.00 36 1016.2
20260901175403 34 242 4.8 12.9 0.00 0.00 0.00 36 1016.2
20260901175305 33 240 6.4 12.9 0.00 0.00 0.00 36 1016.2
20260901175203 33 240 6.4 12.9 0.00 0.00 0.00 36 1016.2
20260901175103 33 239 6.4 12.9 0.00 0.00 0.00 36 1016.2
20260901175003 33 237 6.4 12.9 0.00 0.00 0.00 36 1016.3
20260901174903 33 236 6.4 12.9 0.00 0.00 0.00 36 1016.3
20260901174803 33 235 4.8 12.9 0.00 0.00 0.00 36 1016.3
20260901174703 33 234 4.8 11.3 0.00 0.00 0.00 36 1016.4
20260901174603 33 232 3.2 11.3 0.00 0.00 0.00 36 1016.4
20260901174503 33 234 3.2 9.7 0.00 0.00 0.00 36 1016.4
20260901174403 33 234 3.2 9.7 0.00 0.00 0.00 36 1016.4
20260901174303 33 232 3.2 9.7 0.00 0.00 0.00 36 1016.4
20260901174203 33 232 3.2 9.7 0.00 0.00 0.00 36 1016.5
20260901174103 34 235 3.2 11.3 0.00 0.00 0.00 36 1016.5
20260901174003 34 242 3.2 12.9 0.00 0.00 0.00 36 1016.5
20260901173903 34 245 4.8 12.9 0.00 0.00 0.00 35 1016.5
20260901173803 34 248 4.8 12.9 0.00 0.00 0.00 35 1016.5
20260901173703 34 253 4.8 12.9 0.00 0.00 0.00 35 1016.4
20260901173603 34 253 4.8 12.9 0.00 0.00 0.00 35 1016.4
20260901173503 34 254 4.8 12.9 0.00 0.00 0.00 35 1016.5
20260901173403 34 255 4.8 12.9 0.00 0.00 0.00 35 1016.5
20260901173303 34 259 4.8 12.9 0.00 0.00 0.00 34 1016.5
20260901173203 34 261 4.8 12.9 0.00 0.00 0.00 35 1016.5
20260901173103 34 258 4.8 12.9 0.00 0.00 0.00 34 1016.5
20260901173024 34 257 4.8 12.9 0.00 0.00 0.00 34 1016.5
20260901172924 34 254 4.8 11.3 0.00 0.00 0.00 34 1016.6
20260901172803 34 248 3.2 11.3 0.00 0.00 0.00 34 1016.5
20260901172703 34 238 3.2 11.3 0.00 0.00 0.00 34 1016.5
20260901172603 34 235 3.2 11.3 0.00 0.00 0.00 34 1016.6
20260901172524 34 236 4.8 11.3 0.00 0.00 0.00 34 1016.6
20260901172403 34 237 4.8 11.3 0.00 0.00 0.00 34 1016.7
20260901172305 34 233 3.2 11.3 0.00 0.00 0.00 34 1016.7
20260901172203 34 232 3.2 9.7 0.00 0.00 0.00 33 1016.7
20260901172124 34 237 3.2 9.7 0.00 0.00 0.00 33 1016.7
20260901172003 34 241 4.8 9.7 0.00 0.00 0.00 34 1016.7
20260901171903 34 241 4.8 9.7 0.00 0.00 0.00 34 1016.8
20260901171803 34 244 4.8 11.3 0.00 0.00 0.00 34 1016.7
20260901171703 34 246 4.8 11.3 0.00 0.00 0.00 34 1016.8
20260901171603 34 246 4.8 11.3 0.00 0.00 0.00 34 1016.8
20260901171503 34 246 4.8 11.3 0.00 0.00 0.00 33 1016.8
20260901171403 34 246 4.8 11.3 0.00 0.00 0.00 33 1016.8
20260901171303 34 244 4.8 11.3 0.00 0.00 0.00 34 1016.8
20260901171203 33 243 4.8 11.3 0.00 0.00 0.00 33 1016.8
20260901171124 33 243 4.8 11.3 0.00 0.00 0.00 33 1016.8
20260901171003 33 244 4.8 11.3 0.00 0.00 0.00 33 1016.8
20260901170903 33 244 4.8 11.3 0.00 0.00 0.00 33 1016.8
20260901170803 33 244 4.8 11.3 0.00 0.00 0.00 33 1016.8
20260901170703 33 245 3.2 11.3 0.00 0.00 0.00 33 1016.8
20260901170603 33 245 3.2 11.3 0.00 0.00 0.00 33 1016.8
20260901170504 33 243 3.2 11.3 0.00 0.00 0.00 33 1016.8
20260901170403 33 240 3.2 9.7 0.00 0.00 0.00 33 1016.8
20260901170303 33 236 3.2 9.7 0.00 0.00 0.00 33 1016.9
20260901170203 33 229 3.2 9.7 0.00 0.00 0.00 33 1016.9
20260901170024 33 221 1.6 9.7 0.00 0.00 0.00 32 1016.9
20260901165903 33 216 3.2 8.0 0.00 0.00 0.00 32 1016.9
20260901165824 33 214 3.2 8.0 0.00 0.00 0.00 32 1016.9
20260901165724 33 215 3.2 8.0 0.00 0.00 0.00 32 1016.9
20260901165603 33 214 1.6 8.0 0.00 0.00 0.00 32 1017.0
20260901165503 33 211 1.6 8.0 0.00 0.00 0.00 32 1016.9
20260901165403 33 218 3.2 9.7 0.00 0.00 0.00 32 1017.0
20260901165324 33 222 3.2 9.7 0.00 0.00 0.00 32 1017.0
20260901165203 33 233 3.2 11.3 0.00 0.00 0.00 32 1017.0
20260901165103 33 236 3.2 11.3 0.00 0.00 0.00 32 1017.0
20260901165004 33 238 3.2 11.3 0.00 0.00 0.00 32 1017.0
20260901164903 33 245 3.2 11.3 0.00 0.00 0.00 32 1017.0
20260901164803 33 262 3.2 11.3 0.00 0.00 0.00 32 1017.0
20260901164703 33 267 3.2 11.3 0.00 0.00 0.00 32 1017.0
20260901164603 33 274 3.2 11.3 0.00 0.00 0.00 32 1017.1
20260901164524 33 276 3.2 11.3 0.00 0.00 0.00 31 1017.0
20260901164403 34 39 3.2 11.3 0.00 0.00 0.00 31 1017.0
20260901164303 34 57 3.2 11.3 0.00 0.00 0.00 30 1017.0
20260901164203 34 65 3.2 11.3 0.00 0.00 0.00 30 1017.0
20260901164103 34 69 3.2 9.7 0.00 0.00 0.00 30 1017.0
20260901164003 34 71 3.2 9.7 0.00 0.00 0.00 30 1016.9
20260901163903 34 72 3.2 9.7 0.00 0.00 0.00 30 1017.0
20260901163803 33 73 3.2 9.7 0.00 0.00 0.00 30 1017.0
20260901163703 33 74 3.2 9.7 0.00 0.00 0.00 29 1017.0
20260901163603 33 75 3.2 9.7 0.00 0.00 0.00 29 1017.1
20260901163503 33 75 3.2 9.7 0.00 0.00 0.00 29 1017.0
20260901163427 33 76 3.2 9.7 0.00 0.00 0.00 29 1017.0
20260901163303 33 79 1.6 8.0 0.00 0.00 0.00 29 1017.0
20260901163203 33 81 1.6 8.0 0.00 0.00 0.00 28 1017.0
20260901163103 33 82 1.6 6.4 0.00 0.00 0.00 28 1017.0
20260901163024 33 81 1.6 6.4 0.00 0.00 0.00 28 1017.0
20260901162924 33 80 1.6 6.4 0.00 0.00 0.00 28 1017.0
20260901162803 33 78 1.6 6.4 0.00 0.00 0.00 27 1017.0
20260901162703 33 78 1.6 4.8 0.00 0.00 0.00 28 1017.1
20260901162624 33 77 1.6 4.8 0.00 0.00 0.00 28 1017.1
20260901162524 33 77 1.6 4.8 0.00 0.00 0.00 28 1017.1
20260901162403 33 76 1.6 4.8 0.00 0.00 0.00 28 1017.1
20260901162306 33 76 1.6 4.8 0.00 0.00 0.00 28 1017.1
20260901162203 33 74 1.6 4.8 0.00 0.00 0.00 27 1017.1
20260901162103 33 73 1.6 4.8 0.00 0.00 0.00 27 1017.1
20260901162003 33 72 1.6 4.8 0.00 0.00 0.00 26 1017.2
20260901161924 33 71 1.6 4.8 0.00 0.00 0.00 26 1017.2
20260901161803 33 70 1.6 4.8 0.00 0.00 0.00 26 1017.2
20260901161703 33 70 1.6 4.8 0.00 0.00 0.00 26 1017.2
20260901161603 33 70 1.6 4.8 0.00 0.00 0.00 25 1017.2
20260901161503 33 70 1.6 4.8 0.00 0.00 0.00 25 1017.2
20260901161424 33 70 1.6 4.8 0.00 0.00 0.00 26 1017.2
20260901161303 33 69 1.6 4.8 0.00 0.00 0.00 26 1017.2
20260901161203 33 69 3.2 6.4 0.00 0.00 0.00 26 1017.2
20260901161103 33 69 3.2 6.4 0.00 0.00 0.00 25 1017.2
20260901161003 32 68 3.2 6.4 0.00 0.00 0.00 25 1017.2
20260901160903 32 68 3.2 6.4 0.00 0.00 0.00 25 1017.2
20260901160803 32 68 3.2 6.4 0.00 0.00 0.00 25 1017.2
20260901160703 32 68 3.2 6.4 0.00 0.00 0.00 25 1017.2
20260901160603 32 68 3.2 6.4 0.00 0.00 0.00 25 1017.2
20260901160503 32 68 1.6 6.4 0.00 0.00 0.00 25 1017.2
20260901160403 32 67 1.6 6.4 0.00 0.00 0.00 25 1017.2
20260901160324 32 67 1.6 6.4 0.00 0.00 0.00 24 1017.2
20260901160203 32 68 1.6 6.4 0.00 0.00 0.00 24 1017.2
20260901160024 32 68 1.6 8.0 0.00 0.00 0.00 23 1017.2
20260901155903 32 68 3.2 8.0 0.00 0.00 0.00 23 1017.2
20260901155803 32 68 3.2 9.7 0.00 0.00 0.00 23 1017.2
20260901155703 32 69 3.2 9.7 0.00 0.00 0.00 24 1017.2
20260901155603 32 69 3.2 9.7 0.00 0.00 0.00 24 1017.2
20260901155503 32 70 3.2 9.7 0.00 0.00 0.00 23 1017.3
20260901155403 32 71 4.8 9.7 0.00 0.00 0.00 24 1017.2
20260901155306 32 72 4.8 9.7 0.00 0.00 0.00 24 1017.2
20260901155203 32 73 4.8 9.7 0.00 0.00 0.00 24 1017.3
20260901155103 32 74 4.8 9.7 0.00 0.00 0.00 23 1017.3
20260901155024 32 75 3.2 9.7 0.00 0.00 0.00 24 1017.3
20260901154903 32 76 3.2 9.7 0.00 0.00 0.00 23 1017.2
20260901154803 32 78 3.2 6.4 0.00 0.00 0.00 22 1017.3
20260901154724 32 78 3.2 6.4 0.00 0.00 0.00 22 1017.3
20260901154603 32 78 3.2 6.4 0.00 0.00 0.00 23 1017.3
20260901154503 32 78 3.2 6.4 0.00 0.00 0.00 22 1017.3
20260901154403 32 77 3.2 6.4 0.00 0.00 0.00 22 1017.2
20260901154324 32 77 3.2 6.4 0.00 0.00 0.00 22 1017.3
20260901154224 32 76 3.2 6.4 0.00 0.00 0.00 22 1017.2
20260901154103 32 76 3.2 6.4 0.00 0.00 0.00 21 1017.3
20260901154005 32 75 3.2 6.4 0.00 0.00 0.00 21 1017.3
20260901153903 32 75 3.2 6.4 0.00 0.00 0.00 21 1017.3
20260901153803 32 75 3.2 6.4 0.00 0.00 0.00 21 1017.2
20260901153703 32 76 3.2 6.4 0.00 0.00 0.00 20 1017.2
20260901153603 32 76 3.2 6.4 0.00 0.00 0.00 20 1017.2
20260901153503 32 76 3.2 6.4 0.00 0.00 0.00 19 1017.2
20260901153403 32 76 3.2 6.4 0.00 0.00 0.00 18 1017.2
20260901153303 32 76 3.2 6.4 0.00 0.00 0.00 18 1017.2
20260901153203 32 76 3.2 6.4 0.00 0.00 0.00 17 1017.2
20260901153104 32 76 1.6 6.4 0.00 0.00 0.00 15 1017.2
20260901153003 32 77 1.6 6.4 0.00 0.00 0.00 15 1017.2
20260901152903 32 77 1.6 6.4 0.00 0.00 0.00 15 1017.2
20260901152824 32 77 1.6 6.4 0.00 0.00 0.00 15 1017.2
20260901152703 32 77 1.6 4.8 0.00 0.00 0.00 14 1017.2
20260901152624 32 77 1.6 4.8 0.00 0.00 0.00 14 1017.2
20260901152503 32 77 1.6 4.8 0.00 0.00 0.00 13 1017.2
20260901152403 32 77 1.6 4.8 0.00 0.00 0.00 12 1017.2
20260901152324 32 77 1.6 4.8 0.00 0.00 0.00 11 1017.2
20260901152224 32 78 1.6 3.2 0.00 0.00 0.00 10 1017.2
20260901152103 32 78 1.6 4.8 0.00 0.00 0.00 10 1017.2
20260901152003 31 77 1.6 4.8 0.00 0.00 0.00 11 1017.2
20260901151903 31 77 1.6 4.8 0.00 0.00 0.00 10 1017.2
20260901151824 31 77 1.6 4.8 0.00 0.00 0.00 10 1017.2
20260901151703 31 77 3.2 6.4 0.00 0.00 0.00 9 1017.3
20260901151603 31 77 1.6 6.4 0.00 0.00 0.00 9 1017.2
20260901151503 31 77 3.2 6.4 0.00 0.00 0.00 9 1017.2
20260901151404 31 77 3.2 6.4 0.00 0.00 0.00 8 1017.2
20260901151303 31 76 3.2 8.0 0.00 0.00 0.00 8 1017.2
20260901151203 31 77 3.2 8.0 0.00 0.00 0.00 8 1017.2
20260901151103 31 78 3.2 8.0 0.00 0.00 0.00 8 1017.2
20260901151024 31 79 3.2 8.0 0.00 0.00 0.00 8 1017.2
20260901150903 31 80 3.2 8.0 0.00 0.00 0.00 6 1017.2
20260901150803 31 80 3.2 8.0 0.00 0.00 0.00 4 1017.2
20260901150724 31 81 3.2 8.0 0.00 0.00 0.00 2 1017.2
20260901150603 31 82 3.2 8.0 0.00 0.00 0.00 4 1017.2
20260901150503 31 82 3.2 8.0 0.00 0.00 0.00 3 1017.1
20260901150403 31 83 3.2 8.0 0.00 0.00 0.00 3 1017.2
20260901150303 31 85 3.2 8.0 0.00 0.00 0.00 1 1017.1
20260901150203 31 85 3.2 6.4 0.00 0.00 0.00 1 1017.2
20260901150124 31 85 3.2 8.0 0.00 0.00 0.00 1 1017.2
20260901150024 31 85 3.2 8.0 0.00 0.00 0.00 1 1017.2
20260901145903 31 85 3.2 8.0 0.00 0.00 0.00 1 1017.2
20260901145824 31 84 3.2 8.0 0.00 0.00 0.00 1 1017.2
20260901145703 31 86 3.2 8.0 0.00 0.00 0.00 1 1017.2
20260901145603 31 87 3.2 8.0 0.00 0.00 0.00 1 1017.2
20260901145503 31 87 3.2 8.0 0.00 0.00 0.00 1 1017.2
20260901145403 31 87 3.2 8.0 0.00 0.00 0.00 1 1017.2
20260901145306 30 88 3.2 8.0 0.00 0.00 0.00 1 1017.2
20260901145203 30 88 3.2 8.0 0.00 0.00 0.00 1 1017.2
20260901145103 30 88 3.2 8.0 0.00 0.00 0.00 1 1017.2
20260901145003 30 89 3.2 8.0 0.00 0.00 0.00 1 1017.2
20260901144903 30 91 1.6 8.0 0.00 0.00 0.00 1 1017.2
20260901144824 30 92 1.6 6.4 0.00 0.00 0.00 1 1017.2
20260901144703 30 91 1.6 4.8 0.00 0.00 0.00 1 1017.2
20260901144603 30 89 1.6 8.0 0.00 0.00 0.00 1 1017.2
20260901144503 30 88 3.2 8.0 0.00 0.00 0.00 1 1017.1
20260901144403 30 88 3.2 8.0 0.00 0.00 0.00 1 1017.2
20260901144303 30 87 3.2 8.0 0.00 0.00 0.00 1 1017.2
20260901144203 30 87 3.2 8.0 0.00 0.00 0.00 1 1017.2
20260901144104 30 86 3.2 8.0 0.00 0.00 0.00 1 1017.2
20260901144003 30 85 3.2 8.0 0.00 0.00 0.00 1 1017.2
20260901143903 30 85 3.2 8.0 0.00 0.00 0.00 1 1017.3
20260901143803 30 84 3.2 8.0 0.00 0.00 0.00 1 1017.3
20260901143703 30 84 3.2 8.0 0.00 0.00 0.00 1 1017.3
20260901143604 30 83 3.2 8.0 0.00 0.00 0.00 1 1017.3
20260901143504 30 82 3.2 8.0 0.00 0.00 0.00 1 1017.3
20260901143424 30 82 3.2 8.0 0.00 0.00 0.00 1 1017.3
20260901143303 30 82 3.2 8.0 0.00 0.00 0.00 1 1017.3
20260901143203 30 82 3.2 8.0 0.00 0.00 0.00 1 1017.3
20260901143124 30 82 3.2 8.0 0.00 0.00 0.00 1 1017.3
20260901143003 30 82 3.2 8.0 0.00 0.00 0.00 1 1017.3
20260901142903 30 82 3.2 8.0 0.00 0.00 0.00 1 1017.3
20260901142803 30 82 3.2 8.0 0.00 0.00 0.00 1 1017.3
20260901142703 30 82 3.2 8.0 0.00 0.00 0.00 1 1017.3
20260901142603 30 83 3.2 8.0 0.00 0.00 0.00 1 1017.3
20260901142503 30 83 3.2 8.0 0.00 0.00 0.00 1 1017.3
20260901142403 30 83 1.6 8.0 0.00 0.00 0.00 1 1017.4
20260901142305 30 83 1.6 8.0 0.00 0.00 0.00 1 1017.4
20260901142224 30 83 1.6 8.0 0.00 0.00 0.00 1 1017.4
20260901142103 30 83 1.6 8.0 0.00 0.00 0.00 1 1017.4
20260901142003 30 83 1.6 8.0 0.00 0.00 0.00 1 1017.4
20260901141904 30 84 1.6 8.0 0.00 0.00 0.00 1 1017.4
20260901141824 30 84 1.6 4.8 0.00 0.00 0.00 1 1017.4
20260901141703 30 84 1.6 4.8 0.00 0.00 0.00 1 1017.4
20260901141603 30 84 1.6 4.8 0.00 0.00 0.00 1 1017.5
20260901141503 30 83 0.0 4.8 0.00 0.00 0.00 1 1017.5
20260901141403 31 82 0.0 3.2 0.00 0.00 0.00 1 1017.5
20260901141303 31 82 0.0 3.2 0.00 0.00 0.00 1 1017.6
20260901141224 31 82 0.0 3.2 0.00 0.00 0.00 1 1017.5
20260901141103 31 82 0.0 1.6 0.00 0.00 0.00 1 1017.5
20260901141003 31 82 0.0 1.6 0.00 0.00 0.00 1 1017.5
20260901140903 30 82 0.0 1.6 0.00 0.00 0.00 1 1017.5
20260901140803 30 82 0.0 1.6 0.00 0.00 0.00 1 1017.5
20260901140703 30 82 0.0 1.6 0.00 0.00 0.00 1 1017.6
20260901140603 30 82 0.0 3.2 0.00 0.00 0.00 1 1017.6
20260901140524 30 82 0.0 3.2 0.00 0.00 0.00 1 1017.5
20260901140403 30 82 0.0 3.2 0.00 0.00 0.00 1 1017.6
20260901140324 30 81 0.0 3.2 0.00 0.00 0.00 1 1017.5
20260901140203 30 81 0.0 3.2 0.00 0.00 0.00 1 1017.5
20260901140103 29 81 0.0 3.2 0.00 0.00 0.00 1 1017.6
20260901140003 29 81 0.0 3.2 0.00 0.00 0.00 1 1017.6
20260901135903 29 81 0.0 3.2 0.00 0.00 0.00 1 1017.6
20260901135803 29 81 0.0 3.2 0.00 0.00 0.00 1 1017.5
20260901135703 29 81 0.0 3.2 0.00 0.00 0.00 1 1017.6
20260901135603 29 81 0.0 3.2 0.00 0.00 0.00 1 1017.5
20260901135503 29 81 0.0 1.6 0.00 0.00 0.00 1 1017.5
20260901135403 29 0 0.0 0.0 0.00 0.00 0.00 1 1017.6
20260901135305 29 0 0.0 0.0 0.00 0.00 0.00 1 1017.6
20260901135203 28 0 0.0 0.0 0.00 0.00 0.00 1 1017.5
20260901135103 28 0 0.0 0.0 0.00 0.00 0.00 1 1017.5
20260901135003 28 0 0.0 0.0 0.00 0.00 0.00 1 1017.5
20260901134903 28 0 0.0 0.0 0.00 0.00 0.00 1 1017.5
20260901134803 28 0 0.0 0.0 0.00 0.00 0.00 1 1017.5
20260901134703 28 0 0.0 0.0 0.00 0.00 0.00 1 1017.6
20260901134624 28 0 0.0 0.0 0.00 0.00 0.00 1 1017.5
20260901134503 28 0 0.0 0.0 0.00 0.00 0.00 1 1017.5
20260901134424 28 0 0.0 0.0 0.00 0.00 0.00 1 1017.5
20260901134303 28 0 0.0 0.0 0.00 0.00 0.00 1 1017.5
20260901134203 28 0 0.0 0.0 0.00 0.00 0.00 1 1017.5
20260901134103 27 0 0.0 0.0 0.00 0.00 0.00 1 1017.5
20260901134003 27 0 0.0 0.0 0.00 0.00 0.00 1 1017.4
20260901133903 27 0 0.0 0.0 0.00 0.00 0.00 1 1017.4
20260901133803 27 0 0.0 0.0 0.00 0.00 0.00 1 1017.5
20260901133704 27 0 0.0 0.0 0.00 0.00 0.00 1 1017.5
20260901133603 27 0 0.0 0.0 0.00 0.00 0.00 1 1017.4
20260901133503 27 0 0.0 0.0 0.00 0.00 0.00 1 1017.4
20260901133403 27 0 0.0 0.0 0.00 0.00 0.00 1 1017.4
20260901133303 27 0 0.0 0.0 0.00 0.00 0.00 1 1017.4
20260901133203 27 0 0.0 0.0 0.00 0.00 0.00 1 1017.3
20260901133103 27 0 0.0 0.0 0.00 0.00 0.00 1 1017.3
20260901133003 27 0 0.0 0.0 0.00 0.00 0.00 1 1017.4
20260901132903 27 0 0.0 0.0 0.00 0.00 0.00 1 1017.3
20260901132803 27 0 0.0 0.0 0.00 0.00 0.00 1 1017.4
20260901132703 27 0 0.0 0.0 0.00 0.00 0.00 1 1017.4
20260901132603 27 0 0.0 0.0 0.00 0.00 0.00 1 1017.4
20260901132503 27 0 0.0 0.0 0.00 0.00 0.00 1 1017.4
20260901132403 27 0 0.0 0.0 0.00 0.00 0.00 1 1017.4
20260901132307 27 0 0.0 0.0 0.00 0.00 0.00 1 1017.4
20260901132203 27 0 0.0 0.0 0.00 0.00 0.00 1 1017.3
20260901132103 27 0 0.0 0.0 0.00 0.00 0.00 1 1017.3
20260901132003 27 0 0.0 0.0 0.00 0.00 0.00 1 1017.3
20260901131903 26 0 0.0 0.0 0.00 0.00 0.00 1 1017.3
20260901131803 26 0 0.0 0.0 0.00 0.00 0.00 1 1017.3
20260901131704 26 0 0.0 0.0 0.00 0.00 0.00 1 1017.3
20260901131603 26 0 0.0 0.0 0.00 0.00 0.00 1 1017.3
20260901131503 26 0 0.0 0.0 0.00 0.00 0.00 1 1017.3
20260901131403 26 0 0.0 0.0 0.00 0.00 0.00 1 1017.3
20260901131303 26 0 0.0 0.0 0.00 0.00 0.00 1 1017.2
20260901131203 26 0 0.0 0.0 0.00 0.00 0.00 1 1017.3
20260901131103 26 0 0.0 0.0 0.00 0.00 0.00 1 1017.3
20260901131003 26 0 0.0 0.0 0.00 0.00 0.00 1 1017.2
20260901130903 26 0 0.0 0.0 0.00 0.00 0.00 1 1017.2
20260901130824 26 0 0.0 0.0 0.00 0.00 0.00 1 1017.2
20260901130703 26 0 0.0 0.0 0.00 0.00 0.00 1 1017.2
20260901130624 26 0 0.0 0.0 0.00 0.00 0.00 1 1017.2
20260901130503 26 0 0.0 0.0 0.00 0.00 0.00 1 1017.2
20260901130424 26 0 0.0 0.0 0.00 0.00 0.00 1 1017.2
20260901130303 26 0 0.0 0.0 0.00 0.00 0.00 1 1017.2
20260901130203 26 0 0.0 0.0 0.00 0.00 0.00 1 1017.2
20260901130124 26 0 0.0 0.0 0.00 0.00 0.00 1 1017.1
20260901130024 26 0 0.0 0.0 0.00 0.00 0.00 1 1017.1
20260901125924 26 0 0.0 0.0 0.00 0.00 0.00 1 1017.1
20260901125804 26 0 0.0 0.0 0.00 0.00 0.00 1 1017.1
20260901125704 26 0 0.0 0.0 0.00 0.00 0.00 1 1017.0
20260901125604 26 0 0.0 0.0 0.00 0.00 0.00 1 1017.1
20260901125504 26 0 0.0 0.0 0.00 0.00 0.00 1 1017.0
20260901125404 26 0 0.0 0.0 0.00 0.00 0.00 1 1017.0
20260901125308 26 0 0.0 0.0 0.00 0.00 0.00 1 1017.0
20260901125225 26 0 0.0 0.0 0.00 0.00 0.00 1 1017.0
20260901125104 26 0 0.0 0.0 0.00 0.00 0.00 1 1017.0
20260901125004 25 0 0.0 0.0 0.00 0.00 0.00 1 1017.0
20260901124904 25 0 0.0 0.0 0.00 0.00 0.00 1 1017.0
20260901124804 25 0 0.0 0.0 0.00 0.00 0.00 1 1017.0
20260901124704 25 0 0.0 0.0 0.00 0.00 0.00 1 1017.0
20260901124604 25 0 0.0 0.0 0.00 0.00 0.00 1 1017.0
20260901124505 25 0 0.0 0.0 0.00 0.00 0.00 1 1017.0
20260901124404 25 0 0.0 0.0 0.00 0.00 0.00 1 1016.9
20260901124325 25 0 0.0 0.0 0.00 0.00 0.00 1 1017.0
20260901124204 24 0 0.0 0.0 0.00 0.00 0.00 1 1017.0
20260901124104 24 0 0.0 0.0 0.00 0.00 0.00 1 1016.9
20260901124025 24 0 0.0 0.0 0.00 0.00 0.00 1 1016.9
20260901123904 24 0 0.0 0.0 0.00 0.00 0.00 1 1016.9
20260901123804 24 0 0.0 0.0 0.00 0.00 0.00 1 1016.9
20260901123704 24 0 0.0 0.0 0.00 0.00 0.00 1 1016.9
20260901123604 24 0 0.0 0.0 0.00 0.00 0.00 1 1016.9
20260901123525 24 0 0.0 0.0 0.00 0.00 0.00 1 1016.9
20260901123404 24 0 0.0 0.0 0.00 0.00 0.00 1 1016.9
20260901123304 24 0 0.0 0.0 0.00 0.00 0.00 1 1016.9
20260901123204 24 0 0.0 0.0 0.00 0.00 0.00 1 1016.9
20260901123104 24 0 0.0 0.0 0.00 0.00 0.00 1 1016.9
20260901123004 24 0 0.0 0.0 0.00 0.00 0.00 1 1016.8
20260901122904 24 0 0.0 0.0 0.00 0.00 0.00 1 1016.8
20260901122804 24 0 0.0 0.0 0.00 0.00 0.00 1 1016.8
20260901122704 24 0 0.0 0.0 0.00 0.00 0.00 1 1016.7
20260901122604 24 0 0.0 0.0 0.00 0.00 0.00 1 1016.7
20260901122504 24 0 0.0 0.0 0.00 0.00 0.00 1 1016.7
20260901122404 24 0 0.0 0.0 0.00 0.00 0.00 1 1016.7
20260901122306 24 0 0.0 0.0 0.00 0.00 0.00 1 1016.6
20260901122204 24 0 0.0 0.0 0.00 0.00 0.00 1 1016.6
20260901122104 24 0 0.0 0.0 0.00 0.00 0.00 1 1016.6
20260901122004 24 0 0.0 0.0 0.00 0.00 0.00 1 1016.6
20260901121904 24 0 0.0 0.0 0.00 0.00 0.00 1 1016.6
20260901121804 24 0 0.0 0.0 0.00 0.00 0.00 1 1016.5
20260901121704 24 0 0.0 0.0 0.00 0.00 0.00 1 1016.5
20260901121604 24 0 0.0 0.0 0.00 0.00 0.00 1 1016.6
20260901121504 24 0 0.0 0.0 0.00 0.00 0.00 1 1016.6
20260901121425 24 0 0.0 0.0 0.00 0.00 0.00 1 1016.5
20260901121304 24 0 0.0 0.0 0.00 0.00 0.00 1 1016.5
20260901121204 24 0 0.0 0.0 0.00 0.00 0.00 1 1016.6
20260901121104 24 0 0.0 0.0 0.00 0.00 0.00 1 1016.6
20260901121025 24 0 0.0 0.0 0.00 0.00 0.00 1 1016.6
20260901120925 24 0 0.0 0.0 0.00 0.00 0.00 1 1016.6
20260901120804 24 0 0.0 0.0 0.00 0.00 0.00 1 1016.5
20260901120704 24 0 0.0 0.0 0.00 0.00 0.00 1 1016.6
20260901120604 24 0 0.0 0.0 0.00 0.00 0.00 1 1016.5
20260901120504 24 0 0.0 0.0 0.00 0.00 0.00 1 1016.5
20260901120404 24 0 0.0 0.0 0.00 0.00 0.00 1 1016.5
20260901120325 24 0 0.0 0.0 0.00 0.00 0.00 1 1016.5
20260901120204 24 0 0.0 0.0 0.00 0.00 0.00 1 1016.4
20260901120104 24 0 0.0 0.0 0.00 0.00 0.00 1 1016.4
20260901120004 24 0 0.0 0.0 0.00 0.00 0.00 1 1016.4
20260901115904 24 0 0.0 0.0 0.00 0.00 0.00 1 1016.4
20260901115804 24 0 0.0 1.6 0.00 0.00 0.00 1 1016.4
20260901115704 24 0 0.0 1.6 0.00 0.00 0.00 1 1016.4
20260901115604 24 0 0.0 1.6 0.00 0.00 0.00 1 1016.4
20260901115504 24 0 0.0 1.6 0.00 0.00 0.00 1 1016.4
20260901115404 25 0 0.0 1.6 0.00 0.00 0.00 1 1016.5
20260901115306 25 0 0.0 1.6 0.00 0.00 0.00 1 1016.4
20260901115204 25 0 0.0 1.6 0.00 0.00 0.00 1 1016.4
20260901115104 25 0 0.0 1.6 0.00 0.00 0.00 1 1016.5
20260901115004 25 0 0.0 1.6 0.00 0.00 0.00 1 1016.4
20260901114904 25 0 0.0 1.6 0.00 0.00 0.00 1 1016.4
20260901114804 25 0 0.0 1.6 0.00 0.00 0.00 1 1016.4
20260901114704 25 0 0.0 1.6 0.00 0.00 0.00 1 1016.5
20260901114604 25 0 0.0 1.6 0.00 0.00 0.00 1 1016.5
20260901114504 25 0 0.0 1.6 0.00 0.00 0.00 1 1016.5
20260901114404 25 0 0.0 1.6 0.00 0.00 0.00 1 1016.5
20260901114304 25 0 0.0 1.6 0.00 0.00 0.00 1 1016.4
20260901114204 25 0 0.0 1.6 0.00 0.00 0.00 1 1016.5
20260901114104 25 0 0.0 1.6 0.00 0.00 0.00 1 1016.5
20260901114004 25 0 0.0 1.6 0.00 0.00 0.00 1 1016.5
20260901113904 25 0 0.0 1.6 0.00 0.00 0.00 1 1016.5
20260901113804 25 0 0.0 0.0 0.00 0.00 0.00 1 1016.5
20260901113725 25 0 0.0 0.0 0.00 0.00 0.00 1 1016.5
20260901113604 25 0 0.0 0.0 0.00 0.00 0.00 1 1016.5
20260901113504 25 75 0.0 1.6 0.00 0.00 0.00 1 1016.6
20260901113404 25 75 0.0 1.6 0.00 0.00 0.00 1 1016.5
20260901113304 25 75 0.0 1.6 0.00 0.00 0.00 1 1016.5
20260901113204 25 75 0.0 1.6 0.00 0.00 0.00 1 1016.6
20260901113125 25 75 0.0 1.6 0.00 0.00 0.00 1 1016.6
20260901113004 25 75 0.0 1.6 0.00 0.00 0.00 1 1016.5
20260901112904 25 75 0.0 1.6 0.00 0.00 0.00 1 1016.5
20260901112804 25 75 0.0 1.6 0.00 0.00 0.00 1 1016.5
20260901112704 25 75 0.0 1.6 0.00 0.00 0.00 1 1016.5
20260901112604 25 75 0.0 1.6 0.00 0.00 0.00 1 1016.5
20260901112525 25 75 0.0 1.6 0.00 0.00 0.00 1 1016.5
20260901112425 25 75 0.0 1.6 0.00 0.00 0.00 1 1016.5
20260901112306 25 75 0.0 1.6 0.00 0.00 0.00 1 1016.5
20260901112204 25 75 0.0 1.6 0.00 0.00 0.00 1 1016.5
20260901112104 25 75 0.0 1.6 0.00 0.00 0.00 1 1016.4
20260901112004 25 75 0.0 1.6 0.00 0.00 0.00 1 1016.4
20260901111925 25 75 0.0 1.6 0.00 0.00 0.00 1 1016.4
20260901111804 25 75 0.0 1.6 0.00 0.00 0.00 1 1016.4
20260901111704 25 75 0.0 1.6 0.00 0.00 0.00 1 1016.4
20260901111604 25 75 0.0 1.6 0.00 0.00 0.00 1 1016.4
20260901111525 25 75 0.0 1.6 0.00 0.00 0.00 1 1016.4
20260901111404 25 75 0.0 1.6 0.00 0.00 0.00 1 1016.4
20260901111304 25 75 0.0 1.6 0.00 0.00 0.00 1 1016.4
20260901111204 25 75 0.0 1.6 0.00 0.00 0.00 1 1016.4
20260901111104 25 75 0.0 1.6 0.00 0.00 0.00 1 1016.4
20260901111004 25 75 0.0 3.2 0.00 0.00 0.00 1 1016.5
20260901110904 25 75 0.0 3.2 0.00 0.00 0.00 1 1016.4
20260901110804 25 75 1.6 3.2 0.00 0.00 0.00 1 1016.5
20260901110704 25 75 1.6 3.2 0.00 0.00 0.00 1 1016.5
20260901110604 25 75 1.6 3.2 0.00 0.00 0.00 1 1016.5
20260901110504 25 75 1.6 4.8 0.00 0.00 0.00 1 1016.5
20260901110425 25 75 1.6 4.8 0.00 0.00 0.00 1 1016.4
20260901110304 25 75 1.6 4.8 0.00 0.00 0.00 1 1016.4
20260901110204 25 75 1.6 4.8 0.00 0.00 0.00 1 1016.4
20260901110104 25 75 1.6 4.8 0.00 0.00 0.00 1 1016.4
20260901110004 25 75 3.2 4.8 0.00 0.00 0.00 1 1016.4
20260901105904 25 75 3.2 4.8 0.00 0.00 0.00 1 1016.4
20260901105804 25 75 3.2 4.8 0.00 0.00 0.00 1 1016.4
20260901105704 25 75 3.2 4.8 0.00 0.00 0.00 1 1016.4
20260901105604 25 75 3.2 4.8 0.00 0.00 0.00 1 1016.4
20260901105504 25 74 3.2 4.8 0.00 0.00 0.00 1 1016.4
20260901105404 25 74 3.2 4.8 0.00 0.00 0.00 1 1016.4
20260901105305 25 74 3.2 4.8 0.00 0.00 0.00 1 1016.5
20260901105204 25 74 3.2 4.8 0.00 0.00 0.00 1 1016.4
20260901105104 25 74 3.2 4.8 0.00 0.00 0.00 1 1016.4
20260901105004 25 74 3.2 4.8 0.00 0.00 0.00 1 1016.5
20260901104904 25 73 3.2 4.8 0.00 0.00 0.00 1 1016.4
20260901104804 25 73 3.2 4.8 0.00 0.00 0.00 1 1016.4
20260901104725 25 73 3.2 4.8 0.00 0.00 0.00 1 1016.4
20260901104625 25 73 3.2 4.8 0.00 0.00 0.00 1 1016.4
20260901104525 25 73 3.2 4.8 0.00 0.00 0.00 1 1016.4
20260901104404 25 73 3.2 4.8 0.00 0.00 0.00 1 1016.4
20260901104304 25 73 3.2 4.8 0.00 0.00 0.00 1 1016.4
20260901104204 25 73 1.6 4.8 0.00 0.00 0.00 1 1016.3
20260901104104 25 73 1.6 4.8 0.00 0.00 0.00 1 1016.3
20260901104004 25 73 1.6 4.8 0.00 0.00 0.00 1 1016.3
20260901103904 25 73 3.2 4.8 0.00 0.00 0.00 1 1016.3
20260901103804 25 73 1.6 4.8 0.00 0.00 0.00 1 1016.3
20260901103725 25 73 1.6 4.8 0.00 0.00 0.00 1 1016.3
20260901103604 25 73 1.6 4.8 0.00 0.00 0.00 1 1016.3
20260901103504 25 73 1.6 4.8 0.00 0.00 0.00 1 1016.3
20260901103404 25 73 1.6 4.8 0.00 0.00 0.00 1 1016.3
20260901103325 25 73 1.6 4.8 0.00 0.00 0.00 1 1016.3
20260901103204 25 73 1.6 4.8 0.00 0.00 0.00 1 1016.3
20260901103104 25 73 1.6 4.8 0.00 0.00 0.00 1 1016.3
20260901103004 25 73 1.6 4.8 0.00 0.00 0.00 1 1016.3
20260901102904 25 72 1.6 4.8 0.00 0.00 0.00 1 1016.3
20260901102825 25 72 1.6 4.8 0.00 0.00 0.00 1 1016.3
20260901102704 25 72 1.6 4.8 0.00 0.00 0.00 1 1016.3
20260901102604 25 72 1.6 3.2 0.00 0.00 0.00 1 1016.3
20260901102525 25 72 1.6 3.2 0.00 0.00 0.00 1 1016.3
20260901102404 25 72 1.6 3.2 0.00 0.00 0.00 1 1016.3
20260901102306 25 72 1.6 3.2 0.00 0.00 0.00 1 1016.3
20260901102204 25 72 1.6 3.2 0.00 0.00 0.00 1 1016.3
20260901102104 25 72 1.6 4.8 0.00 0.00 0.00 1 1016.2
20260901102004 25 72 1.6 4.8 0.00 0.00 0.00 1 1016.3
20260901101904 25 72 1.6 4.8 0.00 0.00 0.00 1 1016.3
20260901101825 25 72 1.6 4.8 0.00 0.00 0.00 1 1016.3
20260901101704 25 72 3.2 4.8 0.00 0.00 0.00 1 1016.2
20260901101604 25 72 3.2 6.4 0.00 0.00 0.00 1 1016.3
20260901101525 25 72 1.6 6.4 0.00 0.00 0.00 1 1016.2
20260901101404 25 72 1.6 6.4 0.00 0.00 0.00 1 1016.2
20260901101304 25 72 3.2 6.4 0.00 0.00 0.00 1 1016.2
20260901101225 25 72 3.2 6.4 0.00 0.00 0.00 1 1016.2
20260901101104 25 72 3.2 6.4 0.00 0.00 0.00 1 1016.2
20260901101025 25 72 3.2 6.4 0.00 0.00 0.00 1 1016.2
20260901100904 25 71 3.2 6.4 0.00 0.00 0.00 1 1016.2
20260901100804 25 71 3.2 6.4 0.00 0.00 0.00 1 1016.2
20260901100704 25 71 3.2 6.4 0.00 0.00 0.00 1 1016.2
20260901100604 25 71 3.2 6.4 0.00 0.00 0.00 1 1016.2
20260901100504 25 71 3.2 6.4 0.00 0.00 0.00 1 1016.2
20260901100404 25 70 3.2 6.4 0.00 0.00 0.00 1 1016.2
20260901100325 25 70 3.2 6.4 0.00 0.00 0.00 1 1016.2
20260901100204 25 70 3.2 6.4 0.00 0.00 0.00 1 1016.2
20260901100104 25 70 3.2 6.4 0.00 0.00 0.00 1 1016.2
20260901100004 25 70 3.2 6.4 0.00 0.00 0.00 1 1016.1
20260901095904 25 69 3.2 6.4 0.00 0.00 0.00 1 1016.2
20260901095804 25 69 3.2 6.4 0.00 0.00 0.00 1 1016.2
20260901095704 25 68 3.2 6.4 0.00 0.00 0.00 1 1016.2
20260901095625 25 68 3.2 6.4 0.00 0.00 0.00 1 1016.1
20260901095504 25 68 3.2 6.4 0.00 0.00 0.00 1 1016.2
20260901095404 25 68 3.2 6.4 0.00 0.00 0.00 1 1016.2
20260901095306 25 67 3.2 6.4 0.00 0.00 0.00 1 1016.3
20260901095205 25 67 3.2 6.4 0.00 0.00 0.00 1 1016.2
20260901095104 25 66 3.2 6.4 0.00 0.00 0.00 1 1016.2
20260901095004 25 66 3.2 6.4 0.00 0.00 0.00 1 1016.3
20260901094904 25 65 3.2 6.4 0.00 0.00 0.00 1 1016.2
20260901094804 25 65 3.2 6.4 0.00 0.00 0.00 1 1016.2
20260901094704 25 65 3.2 6.4 0.00 0.00 0.00 1 1016.3
20260901094604 25 64 3.2 6.4 0.00 0.00 0.00 1 1016.3
20260901094504 25 64 3.2 6.4 0.00 0.00 0.00 1 1016.3
20260901094425 25 63 3.2 8.0 0.00 0.00 0.00 1 1016.3
20260901094304 25 63 4.8 8.0 0.00 0.00 0.00 1 1016.3
20260901094204 25 63 4.8 8.0 0.00 0.00 0.00 1 1016.3
20260901094104 25 62 4.8 8.0 0.00 0.00 0.00 1 1016.3
20260901094004 25 62 4.8 8.0 0.00 0.00 0.00 1 1016.3
20260901093925 25 62 4.8 8.0 0.00 0.00 0.00 1 1016.3
20260901093804 25 62 4.8 8.0 0.00 0.00 0.00 1 1016.3
20260901093704 25 61 4.8 8.0 0.00 0.00 0.00 1 1016.3
20260901093604 26 61 4.8 8.0 0.00 0.00 0.00 1 1016.3
20260901093504 26 59 4.8 8.0 0.00 0.00 0.00 1 1016.4
20260901093404 26 58 4.8 9.7 0.00 0.00 0.00 1 1016.4
20260901093304 26 58 4.8 9.7 0.00 0.00 0.00 1 1016.4
20260901093225 26 57 4.8 9.7 0.00 0.00 0.00 1 1016.4
20260901093104 26 56 4.8 9.7 0.00 0.00 0.00 1 1016.4